Wetterdaten: Donnerstag, 13.07.2023
Datum Zeit Temp. Aussen Temp. o. S. Temp +5cm Feuchte Auss Luftdruck Regen Sonnenschein Regendauer Solar Windben Empfang
13.07.2023 00:00 18,8 C 17,8 C 15,0 C 67 % 1014,8 hPa 0,0 l/m 0 min 0 min 0 W/m 6,4 km/h (2 Bft) 97,83 %
13.07.2023 00:02 18,8 C 17,8 C 15,0 C 67 % 1014,8 hPa 0,0 l/m 0 min 0 min 0 W/m 6,4 km/h (2 Bft) 95,00 %
13.07.2023 00:04 18,8 C 17,8 C 15,0 C 67 % 1014,9 hPa 0,0 l/m 0 min 0 min 0 W/m 6,4 km/h (2 Bft) 97,92 %
13.07.2023 00:07 18,8 C 17,8 C 15,0 C 67 % 1014,8 hPa 0,0 l/m 0 min 0 min 0 W/m 6,4 km/h (2 Bft) 98,57 %
13.07.2023 00:08 18,8 C 17,8 C 15,0 C 67 % 1014,8 hPa 0,0 l/m 0 min 0 min 0 W/m 3,2 km/h (1 Bft) 95,83 %
13.07.2023 00:12 18,7 C 17,8 C 14,4 C 67 % 1014,9 hPa 0,0 l/m 0 min 0 min 0 W/m 6,4 km/h (2 Bft) 96,00 %
13.07.2023 00:14 18,7 C 17,8 C 15,0 C 67 % 1014,9 hPa 0,0 l/m 0 min 0 min 0 W/m 6,4 km/h (2 Bft) 97,62 %
13.07.2023 00:16 18,7 C 17,8 C 15,0 C 67 % 1014,9 hPa 0,0 l/m 0 min 0 min 0 W/m 6,4 km/h (2 Bft) 100,00 %
13.07.2023 00:18 18,7 C 17,8 C 15,0 C 67 % 1014,9 hPa 0,0 l/m 0 min 0 min 0 W/m 6,4 km/h (2 Bft) 100,00 %
13.07.2023 00:20 18,6 C 17,8 C 14,4 C 67 % 1014,9 hPa 0,0 l/m 0 min 0 min 0 W/m 3,2 km/h (1 Bft) 100,00 %
13.07.2023 00:22 18,6 C 17,8 C 14,4 C 67 % 1014,8 hPa 0,0 l/m 0 min 0 min 0 W/m 3,2 km/h (1 Bft) 100,00 %
13.07.2023 00:24 18,6 C 17,2 C 14,4 C 68 % 1014,9 hPa 0,0 l/m 0 min 0 min 0 W/m 3,2 km/h (1 Bft) 100,00 %
13.07.2023 00:26 18,6 C 17,2 C 14,4 C 67 % 1014,9 hPa 0,0 l/m 0 min 0 min 0 W/m 3,2 km/h (1 Bft) 97,87 %
13.07.2023 00:28 18,6 C 17,2 C 14,4 C 68 % 1014,9 hPa 0,0 l/m 0 min 0 min 0 W/m 3,2 km/h (1 Bft) 97,87 %
13.07.2023 00:30 18,5 C 17,2 C 14,4 C 68 % 1015,0 hPa 0,0 l/m 0 min 0 min 0 W/m 6,4 km/h (2 Bft) 100,00 %
13.07.2023 00:32 18,4 C 17,2 C 14,4 C 68 % 1014,9 hPa 0,0 l/m 0 min 0 min 0 W/m 3,2 km/h (1 Bft) 97,83 %
13.07.2023 00:34 18,4 C 17,2 C 13,9 C 68 % 1015,0 hPa 0,0 l/m 0 min 0 min 0 W/m 3,2 km/h (1 Bft) 97,87 %
13.07.2023 00:36 18,3 C 17,2 C 13,9 C 68 % 1015,0 hPa 0,0 l/m 0 min 0 min 0 W/m 3,2 km/h (1 Bft) 100,00 %
13.07.2023 00:38 18,3 C 16,7 C 13,9 C 69 % 1015,0 hPa 0,0 l/m 0 min 0 min 0 W/m 6,4 km/h (2 Bft) 100,00 %
13.07.2023 00:40 18,2 C 16,7 C 13,9 C 69 % 1015,0 hPa 0,0 l/m 0 min 0 min 0 W/m 6,4 km/h (2 Bft) 100,00 %
13.07.2023 00:46 18,1 C 16,7 C 13,9 C 70 % 1015,0 hPa 0,0 l/m 0 min 0 min 0 W/m 3,2 km/h (1 Bft) 98,31 %
13.07.2023 00:48 18,1 C 16,7 C 13,9 C 70 % 1015,0 hPa 0,0 l/m 0 min 0 min 0 W/m 3,2 km/h (1 Bft) 100,00 %
13.07.2023 00:50 18,0 C 16,7 C 13,9 C 70 % 1015,1 hPa 0,0 l/m 0 min 0 min 0 W/m 0,0 km/h (0 Bft) 100,00 %
13.07.2023 00:52 17,9 C 16,7 C 13,9 C 70 % 1015,0 hPa 0,0 l/m 0 min 0 min 0 W/m 3,2 km/h (1 Bft) 97,87 %
13.07.2023 00:54 17,9 C 16,7 C 13,9 C 70 % 1015,0 hPa 0,0 l/m 0 min 0 min 0 W/m 3,2 km/h (1 Bft) 97,87 %
13.07.2023 00:56 17,9 C 16,7 C 13,9 C 70 % 1015,0 hPa 0,0 l/m 0 min 0 min 0 W/m 3,2 km/h (1 Bft) 100,00 %
13.07.2023 00:58 17,8 C 16,7 C 13,9 C 70 % 1015,0 hPa 0,0 l/m 0 min 0 min 0 W/m 3,2 km/h (1 Bft) 100,00 %
13.07.2023 01:00 17,8 C 16,7 C 13,9 C 70 % 1015,0 hPa 0,0 l/m 0 min 0 min 0 W/m 3,2 km/h (1 Bft) 100,00 %
13.07.2023 01:02 17,8 C 16,7 C 13,9 C 70 % 1015,0 hPa 0,0 l/m 0 min 0 min 0 W/m 3,2 km/h (1 Bft) 97,92 %
13.07.2023 01:04 17,7 C 16,7 C 13,3 C 70 % 1015,1 hPa 0,0 l/m 0 min 0 min 0 W/m 3,2 km/h (1 Bft) 100,00 %
13.07.2023 01:06 17,7 C 16,1 C 13,3 C 70 % 1015,1 hPa 0,0 l/m 0 min 0 min 0 W/m 3,2 km/h (1 Bft) 100,00 %
13.07.2023 01:08 17,7 C 16,1 C 13,3 C 71 % 1015,1 hPa 0,0 l/m 0 min 0 min 0 W/m 0,0 km/h (0 Bft) 100,00 %
13.07.2023 01:10 17,6 C 16,1 C 13,3 C 71 % 1015,1 hPa 0,0 l/m 0 min 0 min 0 W/m 3,2 km/h (1 Bft) 100,00 %
13.07.2023 01:12 17,6 C 16,7 C 13,3 C 71 % 1015,1 hPa 0,0 l/m 0 min 0 min 0 W/m 6,4 km/h (2 Bft) 100,00 %
13.07.2023 01:14 17,6 C 16,7 C 13,3 C 71 % 1015,1 hPa 0,0 l/m 0 min 0 min 0 W/m 0,0 km/h (0 Bft) 100,00 %
13.07.2023 01:16 17,6 C 16,1 C 13,3 C 71 % 1015,1 hPa 0,0 l/m 0 min 0 min 0 W/m 3,2 km/h (1 Bft) 97,87 %
13.07.2023 01:18 17,5 C 16,1 C 13,3 C 71 % 1015,1 hPa 0,0 l/m 0 min 0 min 0 W/m 3,2 km/h (1 Bft) 97,87 %
13.07.2023 01:20 17,5 C 16,1 C 13,3 C 72 % 1015,2 hPa 0,0 l/m 0 min 0 min 0 W/m 3,2 km/h (1 Bft) 100,00 %
13.07.2023 01:22 17,4 C 16,1 C 13,3 C 72 % 1015,1 hPa 0,0 l/m 0 min 0 min 0 W/m 0,0 km/h (0 Bft) 100,00 %
13.07.2023 01:24 17,4 C 16,1 C 13,3 C 72 % 1015,1 hPa 0,0 l/m 0 min 0 min 0 W/m 0,0 km/h (0 Bft) 100,00 %
13.07.2023 01:26 17,4 C 16,1 C 12,8 C 72 % 1015,2 hPa 0,0 l/m 0 min 0 min 0 W/m 3,2 km/h (1 Bft) 100,00 %
13.07.2023 01:28 17,3 C 16,1 C 13,3 C 72 % 1015,2 hPa 0,0 l/m 0 min 0 min 0 W/m 6,4 km/h (2 Bft) 97,92 %
13.07.2023 01:30 17,3 C 16,1 C 13,3 C 72 % 1015,2 hPa 0,0 l/m 0 min 0 min 0 W/m 6,4 km/h (2 Bft) 97,87 %
13.07.2023 01:32 17,3 C 16,1 C 12,8 C 73 % 1015,2 hPa 0,0 l/m 0 min 0 min 0 W/m 0,0 km/h (0 Bft) 95,74 %
13.07.2023 01:34 17,2 C 16,1 C 12,8 C 73 % 1015,2 hPa 0,0 l/m 0 min 0 min 0 W/m 3,2 km/h (1 Bft) 95,74 %
13.07.2023 01:36 17,2 C 16,1 C 12,8 C 72 % 1015,2 hPa 0,0 l/m 0 min 0 min 0 W/m 3,2 km/h (1 Bft) 95,74 %
13.07.2023 01:38 17,2 C 16,1 C 13,3 C 72 % 1015,3 hPa 0,0 l/m 0 min 0 min 0 W/m 0,0 km/h (0 Bft) 93,62 %
13.07.2023 01:40 17,2 C 16,1 C 12,8 C 73 % 1015,3 hPa 0,0 l/m 0 min 0 min 0 W/m 3,2 km/h (1 Bft) 95,74 %
13.07.2023 01:42 17,2 C 16,1 C 12,8 C 73 % 1015,3 hPa 0,0 l/m 0 min 0 min 0 W/m 0,0 km/h (0 Bft) 95,65 %
13.07.2023 01:44 17,1 C 16,1 C 12,8 C 73 % 1015,3 hPa 0,0 l/m 0 min 0 min 0 W/m 3,2 km/h (1 Bft) 91,49 %
13.07.2023 01:46 17,1 C 16,1 C 13,3 C 73 % 1015,3 hPa 0,0 l/m 0 min 0 min 0 W/m 3,2 km/h (1 Bft) 97,14 %
13.07.2023 01:48 17,1 C 16,1 C 12,8 C 73 % 1015,3 hPa 0,0 l/m 0 min 0 min 0 W/m 6,4 km/h (2 Bft) 91,49 %
13.07.2023 01:50 17,1 C 16,1 C 12,8 C 73 % 1015,3 hPa 0,0 l/m 0 min 0 min 0 W/m 3,2 km/h (1 Bft) 91,49 %
13.07.2023 01:52 17,1 C 16,1 C 12,8 C 73 % 1015,3 hPa 0,0 l/m 0 min 0 min 0 W/m 3,2 km/h (1 Bft) 91,49 %
13.07.2023 01:54 17,0 C 16,1 C 12,8 C 73 % 1015,3 hPa 0,0 l/m 0 min 0 min 0 W/m 3,2 km/h (1 Bft) 91,49 %
13.07.2023 01:56 17,0 C 16,1 C 12,8 C 73 % 1015,3 hPa 0,0 l/m 0 min 0 min 0 W/m 6,4 km/h (2 Bft) 93,48 %
13.07.2023 01:58 16,9 C 16,1 C 12,8 C 73 % 1015,4 hPa 0,0 l/m 0 min 0 min 0 W/m 6,4 km/h (2 Bft) 93,22 %
13.07.2023 02:00 16,9 C 16,1 C 12,8 C 73 % 1015,4 hPa 0,0 l/m 0 min 0 min 0 W/m 3,2 km/h (1 Bft) 91,49 %
13.07.2023 02:02 16,9 C 16,1 C 12,8 C 73 % 1015,4 hPa 0,0 l/m 0 min 0 min 0 W/m 6,4 km/h (2 Bft) 95,65 %
13.07.2023 02:04 16,9 C 16,1 C 12,8 C 73 % 1015,4 hPa 0,0 l/m 0 min 0 min 0 W/m 3,2 km/h (1 Bft) 95,74 %
13.07.2023 02:06 16,9 C 16,1 C 12,8 C 73 % 1015,3 hPa 0,0 l/m 0 min 0 min 0 W/m 3,2 km/h (1 Bft) 95,74 %
13.07.2023 02:08 16,9 C 16,1 C 12,8 C 73 % 1015,3 hPa 0,0 l/m 0 min 0 min 0 W/m 3,2 km/h (1 Bft) 95,74 %
13.07.2023 02:10 16,9 C 16,1 C 12,8 C 73 % 1015,3 hPa 0,0 l/m 0 min 0 min 0 W/m 3,2 km/h (1 Bft) 95,74 %
13.07.2023 02:14 16,9 C 16,1 C 13,3 C 73 % 1015,4 hPa 0,0 l/m 0 min 0 min 0 W/m 9,7 km/h (2 Bft) 96,08 %
13.07.2023 02:16 16,9 C 16,1 C 12,8 C 73 % 1015,4 hPa 0,0 l/m 0 min 0 min 0 W/m 3,2 km/h (1 Bft) 95,74 %
13.07.2023 02:18 16,9 C 16,1 C 13,3 C 73 % 1015,4 hPa 0,0 l/m 0 min 0 min 0 W/m 6,4 km/h (2 Bft) 95,65 %
13.07.2023 02:20 16,9 C 16,1 C 13,3 C 73 % 1015,4 hPa 0,0 l/m 0 min 0 min 0 W/m 9,7 km/h (2 Bft) 93,62 %
13.07.2023 02:22 16,9 C 16,1 C 13,3 C 73 % 1015,4 hPa 0,0 l/m 0 min 0 min 0 W/m 3,2 km/h (1 Bft) 93,62 %
13.07.2023 02:24 16,9 C 16,1 C 12,8 C 73 % 1015,3 hPa 0,0 l/m 0 min 0 min 0 W/m 3,2 km/h (1 Bft) 95,74 %
13.07.2023 02:26 16,9 C 16,1 C 12,8 C 74 % 1015,4 hPa 0,0 l/m 0 min 0 min 0 W/m 3,2 km/h (1 Bft) 93,62 %
13.07.2023 02:28 16,9 C 16,1 C 12,8 C 74 % 1015,4 hPa 0,0 l/m 0 min 0 min 0 W/m 3,2 km/h (1 Bft) 97,87 %
13.07.2023 02:30 16,9 C 16,1 C 12,8 C 73 % 1015,3 hPa 0,0 l/m 0 min 0 min 0 W/m 3,2 km/h (1 Bft) 97,87 %
13.07.2023 02:32 16,8 C 16,1 C 12,8 C 74 % 1015,3 hPa 0,0 l/m 0 min 0 min 0 W/m 9,7 km/h (2 Bft) 100,00 %
13.07.2023 02:34 16,8 C 16,1 C 12,8 C 74 % 1015,3 hPa 0,0 l/m 0 min 0 min 0 W/m 3,2 km/h (1 Bft) 97,87 %
13.07.2023 02:36 16,8 C 16,1 C 12,8 C 74 % 1015,4 hPa 0,0 l/m 0 min 0 min 0 W/m 3,2 km/h (1 Bft) 97,87 %
13.07.2023 02:38 16,8 C 16,1 C 12,8 C 74 % 1015,4 hPa 0,0 l/m 0 min 0 min 0 W/m 6,4 km/h (2 Bft) 100,00 %
13.07.2023 02:40 16,8 C 15,6 C 12,8 C 74 % 1015,4 hPa 0,0 l/m 0 min 0 min 0 W/m 12,9 km/h (3 Bft) 100,00 %
13.07.2023 02:42 16,8 C 16,1 C 12,8 C 74 % 1015,4 hPa 0,0 l/m 0 min 0 min 0 W/m 12,9 km/h (3 Bft) 100,00 %
13.07.2023 02:44 16,7 C 15,6 C 12,8 C 74 % 1015,4 hPa 0,0 l/m 0 min 0 min 0 W/m 9,7 km/h (2 Bft) 97,87 %
13.07.2023 02:46 16,7 C 15,6 C 12,8 C 74 % 1015,4 hPa 0,0 l/m 0 min 0 min 0 W/m 9,7 km/h (2 Bft) 100,00 %
13.07.2023 02:48 16,7 C 15,6 C 12,8 C 74 % 1015,4 hPa 0,0 l/m 0 min 0 min 0 W/m 6,4 km/h (2 Bft) 100,00 %
13.07.2023 02:50 16,7 C 15,6 C 12,8 C 74 % 1015,4 hPa 0,0 l/m 0 min 0 min 0 W/m 12,9 km/h (3 Bft) 100,00 %
13.07.2023 02:52 16,7 C 15,6 C 12,8 C 74 % 1015,3 hPa 0,0 l/m 0 min 0 min 0 W/m 9,7 km/h (2 Bft) 100,00 %
13.07.2023 02:54 16,7 C 15,6 C 12,8 C 74 % 1015,4 hPa 0,0 l/m 0 min 0 min 0 W/m 9,7 km/h (2 Bft) 100,00 %
13.07.2023 02:56 16,7 C 15,6 C 12,8 C 74 % 1015,4 hPa 0,0 l/m 0 min 0 min 0 W/m 6,4 km/h (2 Bft) 100,00 %
13.07.2023 02:58 16,7 C 15,6 C 12,8 C 74 % 1015,4 hPa 0,0 l/m 0 min 0 min 0 W/m 6,4 km/h (2 Bft) 100,00 %
13.07.2023 03:00 16,7 C 15,6 C 12,8 C 74 % 1015,4 hPa 0,0 l/m 0 min 0 min 0 W/m 12,9 km/h (3 Bft) 100,00 %
13.07.2023 03:02 16,7 C 15,6 C 12,8 C 74 % 1015,4 hPa 0,0 l/m 0 min 0 min 0 W/m 6,4 km/h (2 Bft) 97,83 %
13.07.2023 03:04 16,7 C 15,6 C 12,8 C 74 % 1015,4 hPa 0,0 l/m 0 min 0 min 0 W/m 6,4 km/h (2 Bft) 100,00 %
13.07.2023 03:06 16,6 C 15,6 C 12,8 C 75 % 1015,3 hPa 0,0 l/m 0 min 0 min 0 W/m 9,7 km/h (2 Bft) 100,00 %
13.07.2023 03:08 16,6 C 15,6 C 12,8 C 75 % 1015,3 hPa 0,0 l/m 0 min 0 min 0 W/m 9,7 km/h (2 Bft) 100,00 %
13.07.2023 03:10 16,6 C 15,6 C 12,8 C 75 % 1015,4 hPa 0,0 l/m 0 min 0 min 0 W/m 9,7 km/h (2 Bft) 100,00 %
13.07.2023 03:12 16,6 C 15,6 C 12,8 C 75 % 1015,4 hPa 0,0 l/m 0 min 0 min 0 W/m 6,4 km/h (2 Bft) 97,87 %
13.07.2023 03:14 16,6 C 15,6 C 12,8 C 75 % 1015,4 hPa 0,0 l/m 0 min 0 min 0 W/m 3,2 km/h (1 Bft) 97,83 %
13.07.2023 03:16 16,6 C 15,6 C 12,8 C 75 % 1015,4 hPa 0,0 l/m 0 min 0 min 0 W/m 0,0 km/h (0 Bft) 95,74 %
13.07.2023 03:18 16,6 C 15,6 C 12,8 C 75 % 1015,4 hPa 0,0 l/m 0 min 0 min 0 W/m 3,2 km/h (1 Bft) 97,87 %
13.07.2023 03:20 16,6 C 15,6 C 12,8 C 75 % 1015,4 hPa 0,0 l/m 0 min 0 min 0 W/m 3,2 km/h (1 Bft) 97,87 %
13.07.2023 03:22 16,6 C 15,6 C 12,8 C 75 % 1015,4 hPa 0,0 l/m 0 min 0 min 0 W/m 3,2 km/h (1 Bft) 95,74 %
13.07.2023 03:24 16,5 C 15,6 C 12,8 C 75 % 1015,4 hPa 0,0 l/m 0 min 0 min 0 W/m 3,2 km/h (1 Bft) 97,87 %
13.07.2023 03:26 16,5 C 15,6 C 12,8 C 75 % 1015,4 hPa 0,0 l/m 0 min 0 min 0 W/m 0,0 km/h (0 Bft) 97,87 %
13.07.2023 03:28 16,4 C 15,6 C 12,8 C 75 % 1015,4 hPa 0,0 l/m 0 min 0 min 0 W/m 0,0 km/h (0 Bft) 95,65 %
13.07.2023 03:30 16,4 C 15,0 C 12,8 C 75 % 1015,4 hPa 0,0 l/m 0 min 0 min 0 W/m 0,0 km/h (0 Bft) 97,87 %
13.07.2023 03:32 16,4 C 15,0 C 12,8 C 75 % 1015,4 hPa 0,0 l/m 0 min 0 min 0 W/m 0,0 km/h (0 Bft) 97,87 %
13.07.2023 03:34 16,4 C 15,0 C 12,2 C 75 % 1015,4 hPa 0,0 l/m 0 min 0 min 0 W/m 0,0 km/h (0 Bft) 95,74 %
13.07.2023 03:36 16,3 C 15,0 C 12,2 C 76 % 1015,4 hPa 0,0 l/m 0 min 0 min 0 W/m 0,0 km/h (0 Bft) 97,87 %
13.07.2023 03:38 16,3 C 15,0 C 12,2 C 76 % 1015,4 hPa 0,0 l/m 0 min 0 min 0 W/m 0,0 km/h (0 Bft) 93,62 %
13.07.2023 03:40 16,3 C 15,0 C 12,2 C 76 % 1015,4 hPa 0,0 l/m 0 min 0 min 0 W/m 0,0 km/h (0 Bft) 97,83 %
13.07.2023 03:42 16,3 C 15,0 C 12,2 C 76 % 1015,3 hPa 0,0 l/m 0 min 0 min 0 W/m 0,0 km/h (0 Bft) 100,00 %
13.07.2023 03:44 16,2 C 15,0 C 12,2 C 76 % 1015,3 hPa 0,0 l/m 0 min 0 min 0 W/m 0,0 km/h (0 Bft) 100,00 %
13.07.2023 03:46 16,2 C 15,0 C 12,2 C 76 % 1015,4 hPa 0,0 l/m 0 min 0 min 0 W/m 0,0 km/h (0 Bft) 100,00 %
13.07.2023 03:48 16,1 C 15,0 C 12,2 C 77 % 1015,4 hPa 0,0 l/m 0 min 0 min 0 W/m 9,7 km/h (2 Bft) 100,00 %
13.07.2023 03:50 16,1 C 15,0 C 12,2 C 77 % 1015,4 hPa 0,0 l/m 0 min 0 min 0 W/m 6,4 km/h (2 Bft) 100,00 %
13.07.2023 03:52 16,1 C 15,0 C 12,2 C 77 % 1015,4 hPa 0,0 l/m 0 min 0 min 0 W/m 12,9 km/h (3 Bft) 100,00 %
13.07.2023 03:54 16,1 C 15,0 C 12,2 C 77 % 1015,4 hPa 0,0 l/m 0 min 0 min 0 W/m 12,9 km/h (3 Bft) 100,00 %
13.07.2023 03:56 16,1 C 15,0 C 12,2 C 77 % 1015,4 hPa 0,0 l/m 0 min 0 min 0 W/m 9,7 km/h (2 Bft) 100,00 %
13.07.2023 03:58 16,1 C 15,0 C 12,2 C 77 % 1015,4 hPa 0,0 l/m 0 min 0 min 0 W/m 3,2 km/h (1 Bft) 100,00 %
13.07.2023 04:00 16,0 C 15,0 C 12,2 C 78 % 1015,5 hPa 0,0 l/m 0 min 0 min 0 W/m 3,2 km/h (1 Bft) 100,00 %
13.07.2023 04:02 16,0 C 15,0 C 12,2 C 78 % 1015,4 hPa 0,0 l/m 0 min 0 min 0 W/m 3,2 km/h (1 Bft) 100,00 %
13.07.2023 04:04 16,0 C 15,0 C 12,2 C 78 % 1015,5 hPa 0,0 l/m 0 min 0 min 0 W/m 3,2 km/h (1 Bft) 97,87 %
13.07.2023 04:06 16,0 C 15,0 C 12,2 C 78 % 1015,4 hPa 0,0 l/m 0 min 0 min 0 W/m 3,2 km/h (1 Bft) 100,00 %
13.07.2023 04:08 15,9 C 15,0 C 12,2 C 78 % 1015,5 hPa 0,0 l/m 0 min 0 min 0 W/m 3,2 km/h (1 Bft) 100,00 %
13.07.2023 04:10 15,9 C 15,0 C 12,2 C 78 % 1015,4 hPa 0,0 l/m 0 min 0 min 0 W/m 0,0 km/h (0 Bft) 100,00 %
13.07.2023 04:12 15,9 C 15,0 C 12,2 C 78 % 1015,5 hPa 0,0 l/m 0 min 0 min 0 W/m 0,0 km/h (0 Bft) 97,87 %
13.07.2023 04:14 15,9 C 15,0 C 12,2 C 78 % 1015,5 hPa 0,0 l/m 0 min 0 min 0 W/m 0,0 km/h (0 Bft) 95,74 %
13.07.2023 04:16 15,8 C 15,0 C 12,2 C 78 % 1015,4 hPa 0,0 l/m 0 min 0 min 0 W/m 0,0 km/h (0 Bft) 100,00 %
13.07.2023 04:18 15,8 C 15,0 C 12,2 C 78 % 1015,4 hPa 0,0 l/m 0 min 0 min 0 W/m 6,4 km/h (2 Bft) 100,00 %
13.07.2023 04:20 15,8 C 15,0 C 12,2 C 79 % 1015,4 hPa 0,0 l/m 0 min 0 min 0 W/m 9,7 km/h (2 Bft) 97,83 %
13.07.2023 04:22 15,8 C 15,0 C 12,2 C 79 % 1015,4 hPa 0,0 l/m 0 min 0 min 0 W/m 3,2 km/h (1 Bft) 97,87 %
13.07.2023 04:24 15,8 C 15,0 C 12,2 C 79 % 1015,4 hPa 0,0 l/m 0 min 0 min 0 W/m 3,2 km/h (1 Bft) 97,87 %
13.07.2023 04:26 15,8 C 15,0 C 12,2 C 79 % 1015,3 hPa 0,0 l/m 0 min 0 min 0 W/m 3,2 km/h (1 Bft) 95,74 %
13.07.2023 04:28 15,8 C 14,4 C 12,2 C 79 % 1015,4 hPa 0,0 l/m 0 min 0 min 0 W/m 3,2 km/h (1 Bft) 97,87 %
13.07.2023 04:30 15,7 C 14,4 C 11,7 C 79 % 1015,5 hPa 0,0 l/m 0 min 0 min 0 W/m 6,4 km/h (2 Bft) 97,87 %
13.07.2023 04:32 15,7 C 14,4 C 12,2 C 79 % 1015,4 hPa 0,0 l/m 0 min 0 min 0 W/m 3,2 km/h (1 Bft) 95,65 %
13.07.2023 04:34 15,7 C 14,4 C 12,2 C 79 % 1015,5 hPa 0,0 l/m 0 min 0 min 0 W/m 3,2 km/h (1 Bft) 95,74 %
13.07.2023 04:36 15,7 C 14,4 C 11,7 C 80 % 1015,5 hPa 0,0 l/m 0 min 0 min 0 W/m 6,4 km/h (2 Bft) 95,74 %
13.07.2023 04:38 15,7 C 14,4 C 11,7 C 80 % 1015,6 hPa 0,0 l/m 0 min 0 min 0 W/m 3,2 km/h (1 Bft) 97,87 %
13.07.2023 04:40 15,7 C 14,4 C 11,7 C 80 % 1015,5 hPa 0,0 l/m 0 min 0 min 0 W/m 3,2 km/h (1 Bft) 97,87 %
13.07.2023 04:42 15,7 C 14,4 C 11,7 C 80 % 1015,5 hPa 0,0 l/m 0 min 0 min 0 W/m 9,7 km/h (2 Bft) 97,87 %
13.07.2023 04:44 15,6 C 14,4 C 11,7 C 80 % 1015,5 hPa 0,0 l/m 0 min 0 min 0 W/m 6,4 km/h (2 Bft) 95,65 %
13.07.2023 04:46 15,6 C 15,0 C 11,7 C 80 % 1015,5 hPa 0,0 l/m 0 min 0 min 0 W/m 6,4 km/h (2 Bft) 97,87 %
13.07.2023 04:48 15,6 C 15,0 C 11,7 C 80 % 1015,5 hPa 0,0 l/m 0 min 0 min 0 W/m 12,9 km/h (3 Bft) 98,11 %
13.07.2023 04:50 15,6 C 15,0 C 12,2 C 80 % 1015,5 hPa 0,0 l/m 0 min 0 min 0 W/m 12,9 km/h (3 Bft) 94,87 %
13.07.2023 04:52 15,6 C 15,0 C 12,2 C 80 % 1015,5 hPa 0,0 l/m 0 min 0 min 0 W/m 3,2 km/h (1 Bft) 97,83 %
13.07.2023 04:54 15,6 C 15,0 C 12,2 C 80 % 1015,5 hPa 0,0 l/m 0 min 0 min 0 W/m 6,4 km/h (2 Bft) 94,00 %
13.07.2023 04:56 15,6 C 15,0 C 11,7 C 80 % 1015,6 hPa 0,0 l/m 0 min 0 min 0 W/m 12,9 km/h (3 Bft) 91,30 %
13.07.2023 04:58 15,6 C 15,0 C 11,7 C 80 % 1015,5 hPa 0,0 l/m 0 min 0 min 0 W/m 6,4 km/h (2 Bft) 95,74 %
13.07.2023 05:00 15,6 C 14,4 C 11,7 C 80 % 1015,5 hPa 0,0 l/m 0 min 0 min 0 W/m 3,2 km/h (1 Bft) 95,74 %
13.07.2023 05:02 15,6 C 14,4 C 11,7 C 80 % 1015,5 hPa 0,0 l/m 0 min 0 min 0 W/m 12,9 km/h (3 Bft) 91,49 %
13.07.2023 05:04 15,6 C 15,0 C 11,7 C 81 % 1015,5 hPa 0,0 l/m 0 min 0 min 0 W/m 6,4 km/h (2 Bft) 91,49 %
13.07.2023 05:06 15,6 C 15,0 C 11,7 C 81 % 1015,6 hPa 0,0 l/m 0 min 0 min 0 W/m 6,4 km/h (2 Bft) 93,62 %
13.07.2023 05:08 15,6 C 15,0 C 11,7 C 81 % 1015,5 hPa 0,0 l/m 0 min 0 min 0 W/m 6,4 km/h (2 Bft) 95,74 %
13.07.2023 05:10 15,6 C 15,0 C 11,7 C 81 % 1015,5 hPa 0,0 l/m 0 min 0 min 0 W/m 6,4 km/h (2 Bft) 85,11 %
13.07.2023 05:12 15,6 C 15,0 C 11,7 C 81 % 1015,5 hPa 0,0 l/m 0 min 0 min 0 W/m 3,2 km/h (1 Bft) 63,64 %
13.07.2023 05:14 15,6 C 15,0 C 11,7 C 81 % 1015,5 hPa 0,0 l/m 0 min 0 min 0 W/m 9,7 km/h (2 Bft) 93,62 %
13.07.2023 05:16 15,6 C 15,0 C 11,7 C 81 % 1015,5 hPa 0,0 l/m 0 min 0 min 0 W/m 6,4 km/h (2 Bft) 93,48 %
13.07.2023 05:18 15,6 C 15,0 C 11,7 C 81 % 1015,6 hPa 0,0 l/m 0 min 0 min 0 W/m 16,1 km/h (3 Bft) 95,74 %
13.07.2023 05:20 15,6 C 15,0 C 11,7 C 81 % 1015,6 hPa 0,0 l/m 0 min 0 min 0 W/m 12,9 km/h (3 Bft) 95,74 %
13.07.2023 05:22 15,6 C 15,0 C 11,7 C 81 % 1015,6 hPa 0,0 l/m 0 min 0 min 0 W/m 12,9 km/h (3 Bft) 97,87 %
13.07.2023 05:24 15,6 C 15,0 C 11,7 C 81 % 1015,6 hPa 0,0 l/m 0 min 0 min 0 W/m 6,4 km/h (2 Bft) 97,87 %
13.07.2023 05:26 15,6 C 15,0 C 11,7 C 81 % 1015,6 hPa 0,0 l/m 0 min 0 min 0 W/m 9,7 km/h (2 Bft) 97,87 %
13.07.2023 05:28 15,6 C 15,0 C 11,7 C 81 % 1015,6 hPa 0,0 l/m 0 min 0 min 0 W/m 9,7 km/h (2 Bft) 97,87 %
13.07.2023 05:30 15,6 C 14,4 C 11,7 C 81 % 1015,6 hPa 0,0 l/m 0 min 0 min 0 W/m 3,2 km/h (1 Bft) 97,83 %
13.07.2023 05:32 15,6 C 14,4 C 11,7 C 82 % 1015,7 hPa 0,0 l/m 0 min 0 min 0 W/m 3,2 km/h (1 Bft) 95,74 %
13.07.2023 05:34 15,6 C 14,4 C 11,7 C 82 % 1015,7 hPa 0,0 l/m 0 min 0 min 0 W/m 3,2 km/h (1 Bft) 100,00 %
13.07.2023 05:36 15,6 C 14,4 C 11,7 C 82 % 1015,7 hPa 0,0 l/m 0 min 0 min 0 W/m 6,4 km/h (2 Bft) 97,87 %
13.07.2023 05:38 15,6 C 14,4 C 11,7 C 82 % 1015,7 hPa 0,0 l/m 0 min 0 min 4 W/m 3,2 km/h (1 Bft) 97,87 %
13.07.2023 05:40 15,5 C 14,4 C 11,7 C 82 % 1015,8 hPa 0,0 l/m 0 min 0 min 5 W/m 12,9 km/h (3 Bft) 95,74 %
13.07.2023 05:42 15,5 C 14,4 C 11,7 C 82 % 1015,8 hPa 0,0 l/m 0 min 0 min 5 W/m 6,4 km/h (2 Bft) 97,83 %
13.07.2023 05:44 15,5 C 14,4 C 11,7 C 82 % 1015,8 hPa 0,0 l/m 0 min 0 min 6 W/m 9,7 km/h (2 Bft) 97,87 %
13.07.2023 05:46 15,5 C 14,4 C 11,7 C 82 % 1015,9 hPa 0,0 l/m 0 min 0 min 7 W/m 9,7 km/h (2 Bft) 97,87 %
13.07.2023 05:48 15,4 C 14,4 C 11,7 C 82 % 1015,9 hPa 0,0 l/m 0 min 0 min 7 W/m 3,2 km/h (1 Bft) 95,74 %
13.07.2023 05:50 15,4 C 14,4 C 11,7 C 82 % 1015,9 hPa 0,0 l/m 0 min 0 min 8 W/m 12,9 km/h (3 Bft) 97,87 %
13.07.2023 05:52 15,4 C 14,4 C 11,7 C 82 % 1015,9 hPa 0,0 l/m 0 min 0 min 9 W/m 3,2 km/h (1 Bft) 100,00 %
13.07.2023 05:54 15,4 C 14,4 C 11,7 C 82 % 1015,9 hPa 0,0 l/m 0 min 0 min 9 W/m 6,4 km/h (2 Bft) 100,00 %
13.07.2023 05:56 15,4 C 14,4 C 11,7 C 82 % 1016,0 hPa 0,0 l/m 0 min 0 min 9 W/m 6,4 km/h (2 Bft) 97,87 %
13.07.2023 05:58 15,4 C 14,4 C 11,7 C 82 % 1016,0 hPa 0,0 l/m 0 min 0 min 11 W/m 9,7 km/h (2 Bft) 97,87 %
13.07.2023 06:00 15,4 C 14,4 C 11,7 C 82 % 1016,0 hPa 0,0 l/m 0 min 0 min 11 W/m 6,4 km/h (2 Bft) 100,00 %
13.07.2023 06:02 15,3 C 14,4 C 11,7 C 83 % 1016,0 hPa 0,0 l/m 0 min 0 min 11 W/m 6,4 km/h (2 Bft) 97,87 %
13.07.2023 06:04 15,3 C 14,4 C 11,7 C 83 % 1016,1 hPa 0,0 l/m 0 min 0 min 12 W/m 6,4 km/h (2 Bft) 100,00 %
13.07.2023 06:07 15,4 C 14,4 C 11,7 C 83 % 1016,1 hPa 0,0 l/m 0 min 0 min 13 W/m 12,9 km/h (3 Bft) 98,61 %
13.07.2023 06:08 15,3 C 14,4 C 11,7 C 83 % 1016,1 hPa 0,0 l/m 0 min 0 min 14 W/m 12,9 km/h (3 Bft) 100,00 %
13.07.2023 06:12 15,3 C 14,4 C 11,7 C 83 % 1016,1 hPa 0,0 l/m 0 min 0 min 16 W/m 6,4 km/h (2 Bft) 100,00 %
13.07.2023 06:14 15,3 C 14,4 C 11,7 C 83 % 1016,2 hPa 0,0 l/m 0 min 0 min 18 W/m 6,4 km/h (2 Bft) 100,00 %
13.07.2023 06:16 15,3 C 14,4 C 11,7 C 83 % 1016,1 hPa 0,0 l/m 0 min 0 min 18 W/m 6,4 km/h (2 Bft) 98,08 %
13.07.2023 06:18 15,3 C 14,4 C 11,7 C 83 % 1016,2 hPa 0,0 l/m 0 min 0 min 18 W/m 12,9 km/h (3 Bft) 97,87 %
13.07.2023 06:20 15,3 C 14,4 C 11,7 C 83 % 1016,2 hPa 0,0 l/m 0 min 0 min 18 W/m 6,4 km/h (2 Bft) 100,00 %
13.07.2023 06:22 15,3 C 14,4 C 11,7 C 83 % 1016,2 hPa 0,0 l/m 0 min 0 min 19 W/m 9,7 km/h (2 Bft) 100,00 %
13.07.2023 06:24 15,3 C 15,0 C 11,7 C 83 % 1016,2 hPa 0,0 l/m 0 min 0 min 20 W/m 6,4 km/h (2 Bft) 100,00 %
13.07.2023 06:26 15,4 C 14,4 C 11,7 C 83 % 1016,2 hPa 0,0 l/m 0 min 0 min 21 W/m 12,9 km/h (3 Bft) 100,00 %
13.07.2023 06:28 15,4 C 15,0 C 11,7 C 83 % 1016,2 hPa 0,0 l/m 0 min 0 min 22 W/m 9,7 km/h (2 Bft) 97,87 %
13.07.2023 06:30 15,4 C 15,0 C 11,7 C 83 % 1016,2 hPa 0,0 l/m 0 min 0 min 23 W/m 6,4 km/h (2 Bft) 95,74 %
13.07.2023 06:32 15,4 C 14,4 C 11,7 C 83 % 1016,2 hPa 0,0 l/m 0 min 0 min 25 W/m 22,5 km/h (4 Bft) 100,00 %
13.07.2023 06:34 15,4 C 14,4 C 11,7 C 83 % 1016,2 hPa 0,0 l/m 0 min 0 min 25 W/m 6,4 km/h (2 Bft) 97,87 %
13.07.2023 06:36 15,4 C 15,0 C 11,7 C 83 % 1016,2 hPa 0,0 l/m 0 min 0 min 25 W/m 12,9 km/h (3 Bft) 100,00 %
13.07.2023 06:38 15,4 C 15,0 C 11,7 C 83 % 1016,2 hPa 0,0 l/m 0 min 0 min 26 W/m 12,9 km/h (3 Bft) 95,74 %
13.07.2023 06:40 15,4 C 15,0 C 11,7 C 83 % 1016,2 hPa 0,0 l/m 0 min 0 min 26 W/m 12,9 km/h (3 Bft) 97,83 %
13.07.2023 06:42 15,4 C 15,0 C 11,7 C 83 % 1016,2 hPa 0,0 l/m 0 min 0 min 26 W/m 12,9 km/h (3 Bft) 95,74 %
13.07.2023 06:44 15,4 C 15,0 C 11,7 C 83 % 1016,2 hPa 0,0 l/m 0 min 0 min 27 W/m 16,1 km/h (3 Bft) 95,74 %
13.07.2023 06:46 15,4 C 15,0 C 11,7 C 83 % 1016,2 hPa 0,0 l/m 0 min 0 min 28 W/m 6,4 km/h (2 Bft) 97,87 %
13.07.2023 06:48 15,4 C 15,0 C 11,7 C 83 % 1016,2 hPa 0,0 l/m 0 min 0 min 28 W/m 6,4 km/h (2 Bft) 97,87 %
13.07.2023 06:50 15,4 C 15,0 C 12,2 C 84 % 1016,2 hPa 0,0 l/m 0 min 0 min 28 W/m 3,2 km/h (1 Bft) 95,74 %
13.07.2023 06:52 15,5 C 15,0 C 12,2 C 84 % 1016,2 hPa 0,0 l/m 0 min 0 min 29 W/m 12,9 km/h (3 Bft) 97,87 %
13.07.2023 06:54 15,5 C 15,0 C 12,2 C 84 % 1016,2 hPa 0,0 l/m 0 min 0 min 30 W/m 12,9 km/h (3 Bft) 95,65 %
13.07.2023 06:56 15,6 C 15,0 C 12,2 C 84 % 1016,2 hPa 0,0 l/m 0 min 0 min 30 W/m 9,7 km/h (2 Bft) 97,87 %
13.07.2023 06:58 15,6 C 15,0 C 12,2 C 84 % 1016,3 hPa 0,0 l/m 0 min 0 min 31 W/m 6,4 km/h (2 Bft) 95,74 %
13.07.2023 07:00 15,6 C 15,0 C 12,2 C 84 % 1016,3 hPa 0,0 l/m 0 min 0 min 32 W/m 12,9 km/h (3 Bft) 95,74 %
13.07.2023 07:02 15,6 C 15,0 C 12,2 C 83 % 1016,2 hPa 0,0 l/m 0 min 0 min 33 W/m 12,9 km/h (3 Bft) 93,62 %
13.07.2023 07:04 15,6 C 15,0 C 12,2 C 84 % 1016,3 hPa 0,0 l/m 0 min 0 min 34 W/m 6,4 km/h (2 Bft) 95,83 %
13.07.2023 07:06 15,6 C 15,0 C 12,2 C 84 % 1016,3 hPa 0,0 l/m 0 min 0 min 35 W/m 12,9 km/h (3 Bft) 96,55 %
13.07.2023 07:08 15,6 C 15,0 C 12,2 C 84 % 1016,3 hPa 0,0 l/m 0 min 0 min 37 W/m 16,1 km/h (3 Bft) 94,29 %
13.07.2023 07:10 15,6 C 15,0 C 12,2 C 84 % 1016,4 hPa 0,0 l/m 0 min 0 min 39 W/m 12,9 km/h (3 Bft) 97,87 %
13.07.2023 07:12 15,6 C 15,0 C 12,2 C 83 % 1016,3 hPa 0,0 l/m 0 min 0 min 40 W/m 16,1 km/h (3 Bft) 97,87 %
13.07.2023 07:14 15,7 C 15,0 C 12,2 C 84 % 1016,4 hPa 0,0 l/m 0 min 0 min 41 W/m 12,9 km/h (3 Bft) 100,00 %
13.07.2023 07:16 15,7 C 15,6 C 12,2 C 84 % 1016,3 hPa 0,0 l/m 0 min 0 min 43 W/m 12,9 km/h (3 Bft) 97,87 %
13.07.2023 07:18 15,7 C 15,6 C 12,2 C 84 % 1016,4 hPa 0,0 l/m 0 min 0 min 44 W/m 6,4 km/h (2 Bft) 97,83 %
13.07.2023 07:20 15,7 C 15,6 C 12,2 C 84 % 1016,4 hPa 0,0 l/m 0 min 0 min 45 W/m 12,9 km/h (3 Bft) 93,62 %
13.07.2023 07:22 15,8 C 15,6 C 12,2 C 84 % 1016,4 hPa 0,0 l/m 0 min 0 min 46 W/m 12,9 km/h (3 Bft) 95,74 %
13.07.2023 07:24 15,8 C 15,6 C 12,2 C 83 % 1016,4 hPa 0,0 l/m 0 min 0 min 46 W/m 12,9 km/h (3 Bft) 97,87 %
13.07.2023 07:26 15,9 C 15,6 C 12,2 C 83 % 1016,4 hPa 0,0 l/m 0 min 0 min 47 W/m 12,9 km/h (3 Bft) 97,87 %
13.07.2023 07:28 15,9 C 15,6 C 12,2 C 83 % 1016,4 hPa 0,0 l/m 0 min 0 min 47 W/m 6,4 km/h (2 Bft) 97,87 %
13.07.2023 07:30 15,9 C 15,6 C 12,2 C 83 % 1016,4 hPa 0,0 l/m 0 min 0 min 48 W/m 3,2 km/h (1 Bft) 97,87 %
13.07.2023 07:32 15,9 C 15,6 C 12,2 C 83 % 1016,5 hPa 0,0 l/m 0 min 0 min 49 W/m 16,1 km/h (3 Bft) 97,83 %
13.07.2023 07:34 16,0 C 15,6 C 12,2 C 83 % 1016,5 hPa 0,0 l/m 0 min 0 min 51 W/m 6,4 km/h (2 Bft) 97,87 %
13.07.2023 07:36 16,0 C 15,6 C 12,2 C 83 % 1016,6 hPa 0,0 l/m 0 min 0 min 53 W/m 12,9 km/h (3 Bft) 97,87 %
13.07.2023 07:38 16,1 C 15,6 C 12,2 C 83 % 1016,5 hPa 0,0 l/m 0 min 0 min 53 W/m 9,7 km/h (2 Bft) 97,87 %
13.07.2023 07:40 16,1 C 15,6 C 12,2 C 83 % 1016,6 hPa 0,0 l/m 0 min 0 min 53 W/m 16,1 km/h (3 Bft) 97,87 %
13.07.2023 07:42 16,1 C 15,6 C 12,2 C 83 % 1016,5 hPa 0,0 l/m 0 min 0 min 53 W/m 9,7 km/h (2 Bft) 97,87 %
13.07.2023 07:44 16,1 C 15,6 C 12,2 C 83 % 1016,6 hPa 0,0 l/m 0 min 0 min 53 W/m 6,4 km/h (2 Bft) 97,83 %
13.07.2023 07:46 16,1 C 15,6 C 12,2 C 83 % 1016,6 hPa 0,0 l/m 0 min 0 min 53 W/m 12,9 km/h (3 Bft) 97,87 %
13.07.2023 07:48 16,2 C 15,6 C 12,8 C 83 % 1016,7 hPa 0,0 l/m 0 min 0 min 54 W/m 16,1 km/h (3 Bft) 97,87 %
13.07.2023 07:50 16,2 C 16,1 C 12,8 C 83 % 1016,8 hPa 0,0 l/m 0 min 0 min 75 W/m 9,7 km/h (2 Bft) 97,87 %
13.07.2023 07:52 16,2 C 16,1 C 12,8 C 83 % 1016,7 hPa 0,0 l/m 0 min 0 min 131 W/m 9,7 km/h (2 Bft) 100,00 %
13.07.2023 07:54 16,3 C 16,1 C 12,8 C 83 % 1016,8 hPa 0,0 l/m 0 min 0 min 106 W/m 19,3 km/h (3 Bft) 100,00 %
13.07.2023 07:56 16,3 C 16,1 C 12,8 C 83 % 1016,7 hPa 0,0 l/m 0 min 0 min 63 W/m 16,1 km/h (3 Bft) 100,00 %
13.07.2023 07:58 16,3 C 16,1 C 12,8 C 83 % 1016,8 hPa 0,0 l/m 0 min 0 min 65 W/m 12,9 km/h (3 Bft) 100,00 %
13.07.2023 08:00 16,3 C 16,1 C 12,8 C 83 % 1016,8 hPa 0,0 l/m 0 min 0 min 69 W/m 12,9 km/h (3 Bft) 100,00 %
13.07.2023 08:02 16,3 C 16,1 C 12,8 C 83 % 1017,0 hPa 0,0 l/m 0 min 0 min 81 W/m 29,0 km/h (5 Bft) 95,74 %
13.07.2023 08:04 16,4 C 16,1 C 12,8 C 83 % 1016,9 hPa 0,0 l/m 2 min 0 min 197 W/m 22,5 km/h (4 Bft) 97,92 %
13.07.2023 08:06 16,4 C 16,1 C 12,8 C 83 % 1016,9 hPa 0,0 l/m 2 min 0 min 269 W/m 16,1 km/h (3 Bft) 97,87 %
13.07.2023 08:08 16,5 C 16,7 C 12,8 C 83 % 1016,9 hPa 0,0 l/m 2 min 0 min 291 W/m 19,3 km/h (3 Bft) 93,62 %
13.07.2023 08:10 16,6 C 17,2 C 12,8 C 83 % 1016,9 hPa 0,0 l/m 2 min 0 min 303 W/m 16,1 km/h (3 Bft) 97,83 %
13.07.2023 08:12 16,6 C 17,8 C 12,8 C 83 % 1017,0 hPa 0,0 l/m 2 min 0 min 309 W/m 9,7 km/h (2 Bft) 95,74 %
13.07.2023 08:14 16,7 C 18,3 C 12,8 C 83 % 1017,0 hPa 0,0 l/m 2 min 0 min 279 W/m 22,5 km/h (4 Bft) 97,87 %
13.07.2023 08:16 16,7 C 18,3 C 12,8 C 83 % 1017,0 hPa 0,0 l/m 2 min 0 min 322 W/m 16,1 km/h (3 Bft) 95,74 %
13.07.2023 08:18 16,8 C 18,3 C 12,8 C 83 % 1017,1 hPa 0,0 l/m 2 min 0 min 281 W/m 12,9 km/h (3 Bft) 97,87 %
13.07.2023 08:20 16,9 C 18,3 C 13,3 C 83 % 1017,0 hPa 0,0 l/m 2 min 0 min 241 W/m 12,9 km/h (3 Bft) 97,87 %
13.07.2023 08:22 16,9 C 18,9 C 13,3 C 83 % 1017,0 hPa 0,0 l/m 2 min 0 min 278 W/m 16,1 km/h (3 Bft) 95,65 %
13.07.2023 08:24 17,1 C 19,4 C 13,9 C 83 % 1017,0 hPa 0,0 l/m 2 min 0 min 451 W/m 22,5 km/h (4 Bft) 97,87 %
13.07.2023 08:26 17,2 C 19,4 C 13,9 C 82 % 1017,0 hPa 0,0 l/m 2 min 0 min 475 W/m 16,1 km/h (3 Bft) 95,74 %
13.07.2023 08:28 17,3 C 19,4 C 13,9 C 82 % 1017,0 hPa 0,0 l/m 2 min 0 min 346 W/m 6,4 km/h (2 Bft) 93,62 %
13.07.2023 08:30 17,4 C 18,9 C 13,9 C 82 % 1017,1 hPa 0,0 l/m 0 min 0 min 190 W/m 16,1 km/h (3 Bft) 93,62 %
13.07.2023 08:32 17,4 C 17,8 C 13,9 C 81 % 1017,1 hPa 0,0 l/m 0 min 0 min 169 W/m 12,9 km/h (3 Bft) 93,62 %
13.07.2023 08:34 17,3 C 17,2 C 13,9 C 81 % 1017,2 hPa 0,0 l/m 0 min 0 min 153 W/m 12,9 km/h (3 Bft) 95,74 %
13.07.2023 08:36 17,3 C 17,2 C 13,9 C 81 % 1017,1 hPa 0,0 l/m 0 min 0 min 147 W/m 19,3 km/h (3 Bft) 95,65 %
13.07.2023 08:38 17,2 C 16,7 C 13,3 C 81 % 1017,2 hPa 0,0 l/m 0 min 0 min 155 W/m 16,1 km/h (3 Bft) 95,74 %
13.07.2023 08:40 17,2 C 16,7 C 13,3 C 82 % 1017,2 hPa 0,0 l/m 0 min 0 min 142 W/m 19,3 km/h (3 Bft) 95,74 %
13.07.2023 08:42 17,2 C 16,7 C 13,3 C 82 % 1017,2 hPa 0,0 l/m 0 min 0 min 130 W/m 12,9 km/h (3 Bft) 95,74 %
13.07.2023 08:44 17,2 C 16,7 C 13,3 C 82 % 1017,2 hPa 0,0 l/m 0 min 0 min 125 W/m 12,9 km/h (3 Bft) 95,74 %
13.07.2023 08:46 17,2 C 16,7 C 13,3 C 82 % 1017,2 hPa 0,0 l/m 0 min 0 min 110 W/m 12,9 km/h (3 Bft) 97,87 %
13.07.2023 08:48 17,2 C 16,7 C 13,3 C 82 % 1017,3 hPa 0,0 l/m 0 min 0 min 120 W/m 19,3 km/h (3 Bft) 95,74 %
13.07.2023 08:50 17,2 C 17,2 C 13,3 C 82 % 1017,2 hPa 0,0 l/m 0 min 0 min 172 W/m 9,7 km/h (2 Bft) 95,65 %
13.07.2023 08:52 17,2 C 17,2 C 13,3 C 82 % 1017,3 hPa 0,0 l/m 0 min 0 min 219 W/m 16,1 km/h (3 Bft) 97,87 %
13.07.2023 08:54 17,2 C 17,2 C 13,3 C 82 % 1017,3 hPa 0,0 l/m 0 min 0 min 194 W/m 12,9 km/h (3 Bft) 97,87 %
13.07.2023 08:56 17,2 C 17,2 C 13,9 C 82 % 1017,3 hPa 0,0 l/m 0 min 0 min 196 W/m 9,7 km/h (2 Bft) 97,87 %
13.07.2023 08:58 17,3 C 17,2 C 13,9 C 82 % 1017,3 hPa 0,0 l/m 0 min 0 min 204 W/m 16,1 km/h (3 Bft) 95,74 %
13.07.2023 09:00 17,3 C 17,8 C 13,9 C 82 % 1017,4 hPa 0,0 l/m 0 min 0 min 211 W/m 6,4 km/h (2 Bft) 95,74 %
13.07.2023 09:02 17,4 C 17,8 C 13,9 C 82 % 1017,3 hPa 0,0 l/m 0 min 0 min 195 W/m 9,7 km/h (2 Bft) 97,87 %
13.07.2023 09:04 17,4 C 18,3 C 14,4 C 82 % 1017,4 hPa 0,0 l/m 2 min 0 min 248 W/m 12,9 km/h (3 Bft) 97,87 %
13.07.2023 09:06 17,6 C 18,3 C 14,4 C 82 % 1017,4 hPa 0,0 l/m 2 min 0 min 251 W/m 19,3 km/h (3 Bft) 95,74 %
13.07.2023 09:08 17,6 C 17,8 C 14,4 C 81 % 1017,5 hPa 0,0 l/m 0 min 0 min 201 W/m 38,6 km/h (5 Bft) 100,00 %
13.07.2023 09:10 17,6 C 17,8 C 14,4 C 81 % 1017,5 hPa 0,0 l/m 0 min 0 min 198 W/m 12,9 km/h (3 Bft) 100,00 %
13.07.2023 09:12 17,7 C 17,8 C 14,4 C 81 % 1017,4 hPa 0,0 l/m 0 min 0 min 185 W/m 12,9 km/h (3 Bft) 100,00 %
13.07.2023 09:14 17,7 C 17,8 C 14,4 C 81 % 1017,4 hPa 0,0 l/m 0 min 0 min 169 W/m 16,1 km/h (3 Bft) 100,00 %
13.07.2023 09:16 17,7 C 17,8 C 14,4 C 81 % 1017,4 hPa 0,0 l/m 0 min 0 min 225 W/m 12,9 km/h (3 Bft) 100,00 %
13.07.2023 09:18 17,7 C 17,8 C 14,4 C 81 % 1017,4 hPa 0,0 l/m 0 min 0 min 249 W/m 16,1 km/h (3 Bft) 97,87 %
13.07.2023 09:20 17,7 C 17,8 C 14,4 C 81 % 1017,4 hPa 0,0 l/m 0 min 0 min 256 W/m 19,3 km/h (3 Bft) 97,87 %
13.07.2023 09:22 17,8 C 18,3 C 14,4 C 81 % 1017,4 hPa 0,0 l/m 2 min 0 min 278 W/m 6,4 km/h (2 Bft) 100,00 %
13.07.2023 09:24 17,8 C 18,3 C 14,4 C 81 % 1017,4 hPa 0,0 l/m 0 min 0 min 240 W/m 12,9 km/h (3 Bft) 97,87 %
13.07.2023 09:26 17,9 C 18,3 C 14,4 C 81 % 1017,5 hPa 0,0 l/m 0 min 0 min 194 W/m 16,1 km/h (3 Bft) 97,87 %
13.07.2023 09:28 17,9 C 18,3 C 15,0 C 80 % 1017,4 hPa 0,0 l/m 0 min 0 min 195 W/m 16,1 km/h (3 Bft) 100,00 %
13.07.2023 09:30 17,9 C 17,8 C 14,4 C 80 % 1017,4 hPa 0,0 l/m 0 min 0 min 198 W/m 19,3 km/h (3 Bft) 100,00 %
13.07.2023 09:32 17,9 C 17,8 C 14,4 C 80 % 1017,5 hPa 0,0 l/m 0 min 0 min 210 W/m 25,7 km/h (4 Bft) 100,00 %
13.07.2023 09:34 17,9 C 17,8 C 14,4 C 80 % 1017,4 hPa 0,0 l/m 0 min 0 min 205 W/m 19,3 km/h (3 Bft) 100,00 %
13.07.2023 09:36 17,9 C 17,8 C 14,4 C 80 % 1017,5 hPa 0,0 l/m 0 min 0 min 179 W/m 22,5 km/h (4 Bft) 97,87 %
13.07.2023 09:38 17,9 C 17,8 C 14,4 C 80 % 1017,5 hPa 0,0 l/m 0 min 0 min 160 W/m 25,7 km/h (4 Bft) 100,00 %
13.07.2023 09:40 17,8 C 17,2 C 14,4 C 80 % 1017,5 hPa 0,0 l/m 0 min 0 min 130 W/m 22,5 km/h (4 Bft) 100,00 %
13.07.2023 09:42 17,8 C 17,8 C 14,4 C 80 % 1017,5 hPa 0,0 l/m 0 min 0 min 152 W/m 12,9 km/h (3 Bft) 100,00 %
13.07.2023 09:44 17,8 C 17,8 C 14,4 C 81 % 1017,5 hPa 0,0 l/m 0 min 0 min 186 W/m 12,9 km/h (3 Bft) 100,00 %
13.07.2023 09:46 17,8 C 17,8 C 14,4 C 81 % 1017,5 hPa 0,0 l/m 0 min 0 min 249 W/m 16,1 km/h (3 Bft) 97,87 %
13.07.2023 09:48 17,9 C 18,3 C 14,4 C 81 % 1017,5 hPa 0,0 l/m 2 min 0 min 290 W/m 12,9 km/h (3 Bft) 100,00 %
13.07.2023 09:50 17,9 C 18,9 C 15,0 C 81 % 1017,5 hPa 0,0 l/m 2 min 0 min 303 W/m 6,4 km/h (2 Bft) 97,87 %
13.07.2023 09:52 18,1 C 18,9 C 15,0 C 81 % 1017,5 hPa 0,0 l/m 2 min 0 min 317 W/m 12,9 km/h (3 Bft) 100,00 %
13.07.2023 09:54 18,2 C 19,4 C 15,6 C 80 % 1017,6 hPa 0,0 l/m 2 min 0 min 369 W/m 12,9 km/h (3 Bft) 100,00 %
13.07.2023 09:56 18,2 C 18,9 C 15,6 C 80 % 1017,5 hPa 0,0 l/m 2 min 0 min 359 W/m 16,1 km/h (3 Bft) 100,00 %
13.07.2023 09:58 18,3 C 18,9 C 15,0 C 80 % 1017,5 hPa 0,0 l/m 0 min 0 min 247 W/m 12,9 km/h (3 Bft) 100,00 %
13.07.2023 10:00 18,3 C 18,9 C 15,0 C 80 % 1017,5 hPa 0,0 l/m 0 min 0 min 285 W/m 12,9 km/h (3 Bft) 97,87 %
13.07.2023 10:02 18,4 C 18,9 C 15,6 C 80 % 1017,5 hPa 0,0 l/m 2 min 0 min 339 W/m 6,4 km/h (2 Bft) 97,87 %
13.07.2023 10:04 18,4 C 19,4 C 15,6 C 80 % 1017,5 hPa 0,0 l/m 2 min 0 min 355 W/m 16,1 km/h (3 Bft) 95,83 %
13.07.2023 10:06 18,6 C 19,4 C 15,6 C 79 % 1017,5 hPa 0,0 l/m 2 min 0 min 332 W/m 12,9 km/h (3 Bft) 97,87 %
13.07.2023 10:08 18,6 C 18,9 C 15,6 C 79 % 1017,5 hPa 0,0 l/m 0 min 0 min 300 W/m 12,9 km/h (3 Bft) 100,00 %
13.07.2023 10:10 18,7 C 19,4 C 15,6 C 79 % 1017,4 hPa 0,0 l/m 0 min 0 min 308 W/m 6,4 km/h (2 Bft) 100,00 %
13.07.2023 10:12 18,8 C 19,4 C 16,1 C 79 % 1017,4 hPa 0,0 l/m 2 min 0 min 320 W/m 12,9 km/h (3 Bft) 97,87 %
13.07.2023 10:14 18,9 C 19,4 C 15,6 C 79 % 1017,5 hPa 0,0 l/m 0 min 0 min 288 W/m 12,9 km/h (3 Bft) 97,87 %
13.07.2023 10:16 18,9 C 19,4 C 15,6 C 79 % 1017,4 hPa 0,0 l/m 0 min 0 min 244 W/m 19,3 km/h (3 Bft) 100,00 %
13.07.2023 10:18 18,9 C 18,9 C 15,6 C 78 % 1017,4 hPa 0,0 l/m 0 min 0 min 250 W/m 16,1 km/h (3 Bft) 97,87 %
13.07.2023 10:20 19,0 C 18,9 C 15,6 C 79 % 1017,4 hPa 0,0 l/m 0 min 0 min 254 W/m 12,9 km/h (3 Bft) 100,00 %
13.07.2023 10:22 18,9 C 18,9 C 15,6 C 78 % 1017,4 hPa 0,0 l/m 0 min 0 min 242 W/m 16,1 km/h (3 Bft) 100,00 %
13.07.2023 10:24 18,9 C 18,9 C 15,6 C 78 % 1017,5 hPa 0,0 l/m 2 min 0 min 324 W/m 12,9 km/h (3 Bft) 93,48 %
13.07.2023 10:26 19,0 C 19,4 C 16,1 C 79 % 1017,4 hPa 0,0 l/m 2 min 0 min 369 W/m 9,7 km/h (2 Bft) 100,00 %
13.07.2023 10:28 19,0 C 19,4 C 16,1 C 78 % 1017,4 hPa 0,0 l/m 2 min 0 min 374 W/m 16,1 km/h (3 Bft) 100,00 %
13.07.2023 10:30 19,1 C 20,0 C 16,1 C 79 % 1017,4 hPa 0,0 l/m 2 min 0 min 346 W/m 6,4 km/h (2 Bft) 95,74 %
13.07.2023 10:32 19,2 C 19,4 C 16,1 C 78 % 1017,4 hPa 0,0 l/m 2 min 0 min 344 W/m 19,3 km/h (3 Bft) 97,87 %
13.07.2023 10:34 19,2 C 20,0 C 16,1 C 78 % 1017,4 hPa 0,0 l/m 2 min 0 min 378 W/m 16,1 km/h (3 Bft) 93,62 %
13.07.2023 10:36 19,2 C 19,4 C 16,1 C 77 % 1017,4 hPa 0,0 l/m 2 min 0 min 384 W/m 16,1 km/h (3 Bft) 95,65 %
13.07.2023 10:38 19,2 C 19,4 C 16,1 C 77 % 1017,4 hPa 0,0 l/m 2 min 0 min 391 W/m 16,1 km/h (3 Bft) 93,62 %
13.07.2023 10:40 19,1 C 19,4 C 16,1 C 78 % 1017,4 hPa 0,0 l/m 2 min 0 min 405 W/m 16,1 km/h (3 Bft) 93,62 %
13.07.2023 10:42 19,2 C 19,4 C 16,1 C 78 % 1017,4 hPa 0,0 l/m 2 min 0 min 371 W/m 12,9 km/h (3 Bft) 91,49 %
13.07.2023 10:44 19,2 C 20,0 C 16,7 C 78 % 1017,4 hPa 0,0 l/m 2 min 0 min 398 W/m 16,1 km/h (3 Bft) 91,49 %
13.07.2023 10:46 19,2 C 20,0 C 16,7 C 78 % 1017,3 hPa 0,0 l/m 2 min 0 min 395 W/m 29,0 km/h (5 Bft) 93,62 %
13.07.2023 10:48 19,2 C 20,0 C 16,7 C 77 % 1017,4 hPa 0,0 l/m 2 min 0 min 400 W/m 25,7 km/h (4 Bft) 91,49 %
13.07.2023 10:50 19,2 C 20,0 C 17,2 C 78 % 1017,3 hPa 0,0 l/m 2 min 0 min 418 W/m 25,7 km/h (4 Bft) 93,48 %
13.07.2023 10:52 19,3 C 20,0 C 17,2 C 78 % 1017,4 hPa 0,0 l/m 2 min 0 min 515 W/m 19,3 km/h (3 Bft) 91,49 %
13.07.2023 10:54 19,3 C 20,6 C 17,2 C 78 % 1017,3 hPa 0,0 l/m 2 min 0 min 627 W/m 25,7 km/h (4 Bft) 91,49 %
13.07.2023 10:56 19,6 C 20,6 C 17,8 C 78 % 1017,3 hPa 0,0 l/m 2 min 0 min 722 W/m 22,5 km/h (4 Bft) 93,62 %
13.07.2023 10:58 19,6 C 20,0 C 17,2 C 77 % 1017,3 hPa 0,0 l/m 2 min 0 min 429 W/m 22,5 km/h (4 Bft) 89,36 %
13.07.2023 11:00 19,6 C 20,0 C 17,2 C 77 % 1017,3 hPa 0,0 l/m 0 min 0 min 295 W/m 19,3 km/h (3 Bft) 89,36 %
13.07.2023 11:02 19,6 C 20,0 C 16,7 C 77 % 1017,4 hPa 0,0 l/m 2 min 0 min 440 W/m 12,9 km/h (3 Bft) 91,30 %
13.07.2023 11:04 19,7 C 20,6 C 17,2 C 77 % 1017,3 hPa 0,0 l/m 0 min 0 min 356 W/m 12,9 km/h (3 Bft) 93,75 %
13.07.2023 11:06 19,8 C 20,6 C 17,2 C 77 % 1017,4 hPa 0,0 l/m 0 min 0 min 350 W/m 12,9 km/h (3 Bft) 89,36 %
13.07.2023 11:08 19,8 C 20,0 C 16,7 C 76 % 1017,4 hPa 0,0 l/m 2 min 0 min 409 W/m 12,9 km/h (3 Bft) 93,62 %
13.07.2023 11:10 19,8 C 20,0 C 16,7 C 76 % 1017,3 hPa 0,0 l/m 0 min 0 min 292 W/m 16,1 km/h (3 Bft) 93,62 %
13.07.2023 11:12 19,8 C 20,0 C 16,7 C 76 % 1017,4 hPa 0,0 l/m 0 min 0 min 275 W/m 19,3 km/h (3 Bft) 95,74 %
13.07.2023 11:14 19,8 C 20,0 C 16,7 C 76 % 1017,5 hPa 0,0 l/m 0 min 0 min 233 W/m 16,1 km/h (3 Bft) 97,87 %
13.07.2023 11:16 19,8 C 20,0 C 16,7 C 76 % 1017,5 hPa 0,0 l/m 0 min 0 min 222 W/m 19,3 km/h (3 Bft) 95,65 %
13.07.2023 11:18 19,7 C 19,4 C 16,1 C 76 % 1017,5 hPa 0,0 l/m 0 min 0 min 218 W/m 16,1 km/h (3 Bft) 95,74 %
13.07.2023 11:20 19,6 C 19,4 C 16,1 C 76 % 1017,5 hPa 0,0 l/m 0 min 0 min 202 W/m 19,3 km/h (3 Bft) 97,87 %
13.07.2023 11:22 19,6 C 19,4 C 16,1 C 76 % 1017,5 hPa 0,0 l/m 0 min 0 min 239 W/m 16,1 km/h (3 Bft) 95,74 %
13.07.2023 11:24 19,6 C 20,0 C 16,1 C 76 % 1017,6 hPa 0,0 l/m 0 min 0 min 360 W/m 19,3 km/h (3 Bft) 95,74 %
13.07.2023 11:26 19,6 C 20,6 C 16,7 C 76 % 1017,5 hPa 0,0 l/m 2 min 0 min 584 W/m 16,1 km/h (3 Bft) 95,74 %
13.07.2023 11:28 19,7 C 21,7 C 17,8 C 77 % 1017,5 hPa 0,0 l/m 2 min 0 min 697 W/m 12,9 km/h (3 Bft) 97,83 %
13.07.2023 11:30 19,8 C 21,7 C 17,8 C 76 % 1017,5 hPa 0,0 l/m 2 min 0 min 657 W/m 35,4 km/h (5 Bft) 95,74 %
13.07.2023 11:32 20,0 C 21,7 C 17,8 C 76 % 1017,5 hPa 0,0 l/m 2 min 0 min 645 W/m 29,0 km/h (5 Bft) 97,87 %
13.07.2023 11:34 20,1 C 21,7 C 17,8 C 75 % 1017,5 hPa 0,0 l/m 2 min 0 min 422 W/m 29,0 km/h (5 Bft) 97,87 %
13.07.2023 11:36 20,1 C 21,1 C 17,8 C 75 % 1017,5 hPa 0,0 l/m 0 min 0 min 345 W/m 25,7 km/h (4 Bft) 93,62 %
13.07.2023 11:38 20,0 C 20,6 C 17,2 C 74 % 1017,5 hPa 0,0 l/m 0 min 0 min 279 W/m 25,7 km/h (4 Bft) 97,87 %
13.07.2023 11:40 20,0 C 21,1 C 17,8 C 75 % 1017,5 hPa 0,0 l/m 0 min 0 min 315 W/m 19,3 km/h (3 Bft) 100,00 %
13.07.2023 11:42 20,1 C 21,1 C 17,2 C 74 % 1017,5 hPa 0,0 l/m 0 min 0 min 302 W/m 16,1 km/h (3 Bft) 97,83 %
13.07.2023 11:44 20,2 C 22,2 C 18,9 C 74 % 1017,5 hPa 0,0 l/m 2 min 0 min 716 W/m 19,3 km/h (3 Bft) 100,00 %
13.07.2023 11:46 20,3 C 22,2 C 18,9 C 73 % 1017,5 hPa 0,0 l/m 2 min 0 min 788 W/m 9,7 km/h (2 Bft) 100,00 %
13.07.2023 11:48 20,5 C 21,7 C 18,3 C 73 % 1017,5 hPa 0,0 l/m 0 min 0 min 312 W/m 19,3 km/h (3 Bft) 97,87 %
13.07.2023 11:50 20,6 C 21,1 C 17,8 C 73 % 1017,5 hPa 0,0 l/m 0 min 0 min 252 W/m 16,1 km/h (3 Bft) 100,00 %
13.07.2023 11:52 20,5 C 20,6 C 17,8 C 72 % 1017,5 hPa 0,0 l/m 0 min 0 min 235 W/m 25,7 km/h (4 Bft) 97,87 %
13.07.2023 11:54 20,4 C 20,6 C 17,2 C 72 % 1017,5 hPa 0,0 l/m 0 min 0 min 221 W/m 9,7 km/h (2 Bft) 97,87 %
13.07.2023 11:56 20,4 C 21,1 C 17,2 C 72 % 1017,6 hPa 0,0 l/m 0 min 0 min 310 W/m 12,9 km/h (3 Bft) 97,83 %
13.07.2023 11:58 20,5 C 21,1 C 17,8 C 73 % 1017,6 hPa 0,0 l/m 0 min 0 min 318 W/m 12,9 km/h (3 Bft) 100,00 %
13.07.2023 12:00 20,6 C 21,1 C 17,8 C 73 % 1017,6 hPa 0,0 l/m 0 min 0 min 272 W/m 22,5 km/h (4 Bft) 97,87 %
13.07.2023 12:02 20,6 C 20,6 C 17,2 C 72 % 1017,6 hPa 0,0 l/m 0 min 0 min 240 W/m 16,1 km/h (3 Bft) 100,00 %
13.07.2023 12:04 20,6 C 22,2 C 17,8 C 73 % 1017,6 hPa 0,0 l/m 0 min 0 min 318 W/m 16,1 km/h (3 Bft) 100,00 %
13.07.2023 12:07 20,7 C 22,8 C 18,3 C 72 % 1017,6 hPa 0,0 l/m 3 min 0 min 995 W/m 19,3 km/h (3 Bft) 100,00 %
13.07.2023 12:08 20,7 C 23,9 C 18,3 C 72 % 1017,6 hPa 0,0 l/m 1 min 0 min 992 W/m 12,9 km/h (3 Bft) 100,00 %
13.07.2023 12:10 20,9 C 23,9 C 18,9 C 71 % 1017,6 hPa 0,0 l/m 2 min 0 min 976 W/m 19,3 km/h (3 Bft) 100,00 %
13.07.2023 12:12 21,1 C 23,3 C 18,9 C 71 % 1017,6 hPa 0,0 l/m 2 min 0 min 976 W/m 16,1 km/h (3 Bft) 97,87 %
13.07.2023 12:14 21,1 C 24,4 C 18,9 C 70 % 1017,5 hPa 0,0 l/m 2 min 0 min 978 W/m 12,9 km/h (3 Bft) 100,00 %
13.07.2023 12:16 21,3 C 25,0 C 20,0 C 71 % 1017,5 hPa 0,0 l/m 2 min 0 min 994 W/m 22,5 km/h (4 Bft) 100,00 %
13.07.2023 12:18 21,4 C 26,1 C 21,7 C 71 % 1017,6 hPa 0,0 l/m 2 min 0 min 983 W/m 16,1 km/h (3 Bft) 100,00 %
13.07.2023 12:20 21,7 C 26,1 C 22,2 C 70 % 1017,5 hPa 0,0 l/m 2 min 0 min 1015 W/m 25,7 km/h (4 Bft) 100,00 %
13.07.2023 12:22 21,8 C 26,1 C 23,3 C 69 % 1017,6 hPa 0,0 l/m 2 min 0 min 1106 W/m 12,9 km/h (3 Bft) 100,00 %
13.07.2023 12:24 22,1 C 25,6 C 22,8 C 68 % 1017,6 hPa 0,0 l/m 2 min 0 min 1110 W/m 16,1 km/h (3 Bft) 100,00 %
13.07.2023 12:26 22,2 C 25,6 C 23,3 C 67 % 1017,7 hPa 0,0 l/m 2 min 0 min 1079 W/m 19,3 km/h (3 Bft) 100,00 %
13.07.2023 12:28 22,2 C 25,0 C 22,8 C 66 % 1017,6 hPa 0,0 l/m 2 min 0 min 1079 W/m 12,9 km/h (3 Bft) 100,00 %
13.07.2023 12:30 22,3 C 25,6 C 23,9 C 67 % 1017,6 hPa 0,0 l/m 2 min 0 min 1064 W/m 19,3 km/h (3 Bft) 97,87 %
13.07.2023 12:32 22,3 C 25,6 C 23,9 C 65 % 1017,7 hPa 0,0 l/m 2 min 0 min 966 W/m 16,1 km/h (3 Bft) 97,87 %
13.07.2023 12:34 22,3 C 25,0 C 23,3 C 66 % 1017,6 hPa 0,0 l/m 2 min 0 min 962 W/m 16,1 km/h (3 Bft) 100,00 %
13.07.2023 12:36 22,3 C 25,6 C 24,4 C 66 % 1017,6 hPa 0,0 l/m 2 min 0 min 963 W/m 16,1 km/h (3 Bft) 95,74 %
13.07.2023 12:38 22,2 C 23,9 C 22,8 C 66 % 1017,6 hPa 0,0 l/m 2 min 0 min 963 W/m 19,3 km/h (3 Bft) 100,00 %
13.07.2023 12:40 22,2 C 22,8 C 21,7 C 66 % 1017,6 hPa 0,0 l/m 2 min 0 min 637 W/m 12,9 km/h (3 Bft) 100,00 %
13.07.2023 12:42 22,1 C 22,2 C 20,6 C 66 % 1017,6 hPa 0,0 l/m 0 min 0 min 234 W/m 12,9 km/h (3 Bft) 97,87 %
13.07.2023 12:44 21,9 C 22,2 C 20,0 C 66 % 1017,6 hPa 0,0 l/m 0 min 0 min 275 W/m 19,3 km/h (3 Bft) 97,87 %
13.07.2023 12:46 21,9 C 23,3 C 20,6 C 67 % 1017,6 hPa 0,0 l/m 0 min 0 min 314 W/m 22,5 km/h (4 Bft) 97,83 %
13.07.2023 12:48 21,9 C 24,4 C 21,7 C 67 % 1017,6 hPa 0,0 l/m 2 min 0 min 1072 W/m 19,3 km/h (3 Bft) 95,74 %
13.07.2023 12:50 22,1 C 24,4 C 21,7 C 67 % 1017,6 hPa 0,0 l/m 2 min 0 min 849 W/m 12,9 km/h (3 Bft) 97,87 %
13.07.2023 12:52 22,1 C 23,3 C 20,6 C 66 % 1017,7 hPa 0,0 l/m 0 min 0 min 320 W/m 16,1 km/h (3 Bft) 97,87 %
13.07.2023 12:54 22,1 C 22,8 C 20,0 C 66 % 1017,7 hPa 0,0 l/m 0 min 0 min 256 W/m 29,0 km/h (5 Bft) 97,87 %
13.07.2023 12:56 22,1 C 24,4 C 20,0 C 67 % 1017,6 hPa 0,0 l/m 0 min 0 min 270 W/m 16,1 km/h (3 Bft) 97,87 %
13.07.2023 12:58 22,2 C 26,1 C 20,0 C 66 % 1017,6 hPa 0,0 l/m 2 min 0 min 841 W/m 16,1 km/h (3 Bft) 95,74 %
13.07.2023 13:00 22,4 C 27,2 C 20,6 C 67 % 1017,6 hPa 0,0 l/m 2 min 0 min 922 W/m 19,3 km/h (3 Bft) 91,30 %
13.07.2023 13:02 22,7 C 26,1 C 20,6 C 65 % 1017,6 hPa 0,0 l/m 2 min 0 min 698 W/m 12,9 km/h (3 Bft) 95,74 %
13.07.2023 13:04 22,8 C 26,7 C 20,6 C 65 % 1017,7 hPa 0,0 l/m 2 min 0 min 594 W/m 12,9 km/h (3 Bft) 93,75 %
13.07.2023 13:06 22,9 C 27,2 C 20,6 C 63 % 1017,7 hPa 0,0 l/m 2 min 0 min 992 W/m 25,7 km/h (4 Bft) 93,62 %
13.07.2023 13:08 23,1 C 27,2 C 20,6 C 63 % 1017,7 hPa 0,0 l/m 2 min 0 min 994 W/m 35,4 km/h (5 Bft) 95,74 %
13.07.2023 13:10 23,2 C 27,2 C 20,6 C 63 % 1017,7 hPa 0,0 l/m 2 min 0 min 983 W/m 22,5 km/h (4 Bft) 95,74 %
13.07.2023 13:12 23,3 C 27,8 C 20,6 C 63 % 1017,6 hPa 0,0 l/m 2 min 0 min 985 W/m 19,3 km/h (3 Bft) 91,30 %
13.07.2023 13:14 23,5 C 27,8 C 20,6 C 62 % 1017,6 hPa 0,0 l/m 2 min 0 min 961 W/m 22,5 km/h (4 Bft) 97,87 %
13.07.2023 13:16 23,7 C 27,2 C 20,0 C 62 % 1017,6 hPa 0,0 l/m 2 min 0 min 953 W/m 25,7 km/h (4 Bft) 97,87 %
13.07.2023 13:18 23,7 C 27,8 C 20,0 C 62 % 1017,5 hPa 0,0 l/m 2 min 0 min 965 W/m 16,1 km/h (3 Bft) 93,62 %
13.07.2023 13:20 23,7 C 27,8 C 20,0 C 62 % 1017,5 hPa 0,0 l/m 2 min 0 min 942 W/m 19,3 km/h (3 Bft) 100,00 %
13.07.2023 13:22 23,8 C 27,8 C 20,0 C 62 % 1017,5 hPa 0,0 l/m 2 min 0 min 933 W/m 29,0 km/h (5 Bft) 97,87 %
13.07.2023 13:24 23,8 C 27,8 C 20,0 C 62 % 1017,5 hPa 0,0 l/m 2 min 0 min 933 W/m 12,9 km/h (3 Bft) 95,74 %
13.07.2023 13:26 23,9 C 28,3 C 20,0 C 62 % 1017,4 hPa 0,0 l/m 2 min 0 min 966 W/m 9,7 km/h (2 Bft) 97,83 %
13.07.2023 13:28 24,1 C 28,9 C 20,0 C 61 % 1017,5 hPa 0,0 l/m 2 min 0 min 1019 W/m 19,3 km/h (3 Bft) 97,87 %
13.07.2023 13:30 24,1 C 28,3 C 20,0 C 61 % 1017,5 hPa 0,0 l/m 2 min 0 min 1029 W/m 22,5 km/h (4 Bft) 95,74 %
13.07.2023 13:32 24,1 C 28,3 C 20,6 C 60 % 1017,5 hPa 0,0 l/m 2 min 0 min 989 W/m 41,8 km/h (6 Bft) 95,74 %
13.07.2023 13:34 24,1 C 28,9 C 20,6 C 60 % 1017,4 hPa 0,0 l/m 2 min 0 min 956 W/m 12,9 km/h (3 Bft) 95,74 %
13.07.2023 13:36 24,2 C 26,7 C 20,0 C 60 % 1017,4 hPa 0,0 l/m 2 min 0 min 766 W/m 19,3 km/h (3 Bft) 95,74 %
13.07.2023 13:38 24,1 C 25,6 C 20,0 C 60 % 1017,4 hPa 0,0 l/m 0 min 0 min 202 W/m 19,3 km/h (3 Bft) 97,87 %
13.07.2023 13:40 23,9 C 25,0 C 20,0 C 60 % 1017,4 hPa 0,0 l/m 0 min 0 min 203 W/m 22,5 km/h (4 Bft) 97,83 %
13.07.2023 13:42 23,8 C 25,0 C 20,0 C 60 % 1017,4 hPa 0,0 l/m 0 min 0 min 211 W/m 9,7 km/h (2 Bft) 95,74 %
13.07.2023 13:44 23,8 C 23,9 C 20,0 C 60 % 1017,4 hPa 0,0 l/m 0 min 0 min 203 W/m 22,5 km/h (4 Bft) 97,87 %
13.07.2023 13:46 23,6 C 25,0 C 20,0 C 59 % 1017,4 hPa 0,0 l/m 0 min 0 min 285 W/m 12,9 km/h (3 Bft) 100,00 %
13.07.2023 13:48 23,5 C 25,6 C 20,6 C 59 % 1017,4 hPa 0,0 l/m 0 min 0 min 294 W/m 19,3 km/h (3 Bft) 95,74 %
13.07.2023 13:50 23,4 C 25,6 C 21,1 C 59 % 1017,4 hPa 0,0 l/m 0 min 0 min 310 W/m 25,7 km/h (4 Bft) 100,00 %
13.07.2023 13:52 23,4 C 24,4 C 20,6 C 59 % 1017,4 hPa 0,0 l/m 0 min 0 min 317 W/m 19,3 km/h (3 Bft) 100,00 %
13.07.2023 13:54 23,4 C 25,6 C 21,1 C 60 % 1017,4 hPa 0,0 l/m 0 min 0 min 259 W/m 16,1 km/h (3 Bft) 97,83 %
13.07.2023 13:56 23,5 C 27,2 C 22,8 C 60 % 1017,4 hPa 0,0 l/m 2 min 0 min 911 W/m 12,9 km/h (3 Bft) 95,74 %
13.07.2023 13:58 23,6 C 27,8 C 23,3 C 61 % 1017,3 hPa 0,0 l/m 2 min 0 min 1009 W/m 16,1 km/h (3 Bft) 97,87 %
13.07.2023 14:00 23,7 C 26,1 C 22,8 C 60 % 1017,2 hPa 0,0 l/m 2 min 0 min 782 W/m 29,0 km/h (5 Bft) 97,87 %
13.07.2023 14:02 23,6 C 25,0 C 21,7 C 60 % 1017,3 hPa 0,0 l/m 0 min 0 min 283 W/m 22,5 km/h (4 Bft) 100,00 %
13.07.2023 14:04 23,5 C 24,4 C 21,1 C 60 % 1017,3 hPa 0,0 l/m 0 min 0 min 298 W/m 19,3 km/h (3 Bft) 100,00 %
13.07.2023 14:06 23,4 C 25,0 C 20,6 C 60 % 1017,3 hPa 0,0 l/m 0 min 0 min 258 W/m 22,5 km/h (4 Bft) 95,65 %
13.07.2023 14:08 23,4 C 26,7 C 20,6 C 60 % 1017,3 hPa 0,0 l/m 2 min 0 min 882 W/m 22,5 km/h (4 Bft) 100,00 %
13.07.2023 14:10 23,5 C 25,0 C 20,6 C 60 % 1017,3 hPa 0,0 l/m 2 min 0 min 508 W/m 16,1 km/h (3 Bft) 100,00 %
13.07.2023 14:12 23,6 C 24,4 C 20,0 C 60 % 1017,3 hPa 0,0 l/m 0 min 0 min 257 W/m 12,9 km/h (3 Bft) 97,87 %
13.07.2023 14:14 23,6 C 24,4 C 20,6 C 60 % 1017,3 hPa 0,0 l/m 0 min 0 min 321 W/m 22,5 km/h (4 Bft) 100,00 %
13.07.2023 14:16 23,6 C 25,6 C 20,6 C 61 % 1017,3 hPa 0,0 l/m 0 min 0 min 396 W/m 19,3 km/h (3 Bft) 97,87 %
13.07.2023 14:18 23,6 C 25,0 C 20,6 C 59 % 1017,2 hPa 0,0 l/m 2 min 0 min 812 W/m 22,5 km/h (4 Bft) 95,65 %
13.07.2023 14:20 23,5 C 24,4 C 20,0 C 61 % 1017,3 hPa 0,0 l/m 0 min 0 min 279 W/m 12,9 km/h (3 Bft) 98,31 %
13.07.2023 14:22 23,5 C 23,9 C 20,0 C 59 % 1017,3 hPa 0,0 l/m 0 min 0 min 209 W/m 25,7 km/h (4 Bft) 97,83 %
13.07.2023 14:24 23,4 C 26,1 C 20,0 C 58 % 1017,3 hPa 0,0 l/m 2 min 0 min 773 W/m 22,5 km/h (4 Bft) 93,62 %
13.07.2023 14:26 23,6 C 26,7 C 20,0 C 59 % 1017,2 hPa 0,0 l/m 2 min 0 min 926 W/m 22,5 km/h (4 Bft) 95,74 %
13.07.2023 14:28 23,7 C 26,1 C 20,0 C 59 % 1017,2 hPa 0,0 l/m 2 min 0 min 734 W/m 25,7 km/h (4 Bft) 97,87 %
13.07.2023 14:30 23,7 C 25,6 C 20,0 C 59 % 1017,2 hPa 0,0 l/m 0 min 0 min 358 W/m 16,1 km/h (3 Bft) 95,74 %
13.07.2023 14:32 23,8 C 25,6 C 20,6 C 59 % 1017,3 hPa 0,0 l/m 0 min 0 min 386 W/m 12,9 km/h (3 Bft) 95,74 %
13.07.2023 14:34 23,8 C 26,1 C 20,6 C 58 % 1017,3 hPa 0,0 l/m 0 min 0 min 388 W/m 19,3 km/h (3 Bft) 97,87 %
13.07.2023 14:36 23,9 C 26,7 C 20,6 C 58 % 1017,3 hPa 0,0 l/m 0 min 0 min 388 W/m 29,0 km/h (5 Bft) 95,65 %
13.07.2023 14:38 23,9 C 26,1 C 20,6 C 58 % 1017,3 hPa 0,0 l/m 0 min 0 min 388 W/m 16,1 km/h (3 Bft) 97,87 %
13.07.2023 14:40 23,9 C 25,0 C 20,6 C 57 % 1017,4 hPa 0,0 l/m 2 min 0 min 413 W/m 32,2 km/h (5 Bft) 97,87 %
13.07.2023 14:42 23,9 C 25,0 C 20,6 C 58 % 1017,4 hPa 0,0 l/m 2 min 0 min 442 W/m 19,3 km/h (3 Bft) 93,62 %
13.07.2023 14:44 23,8 C 25,0 C 20,6 C 58 % 1017,4 hPa 0,0 l/m 2 min 0 min 415 W/m 19,3 km/h (3 Bft) 93,62 %
13.07.2023 14:46 23,8 C 23,9 C 20,0 C 59 % 1017,4 hPa 0,0 l/m 0 min 0 min 285 W/m 22,5 km/h (4 Bft) 95,74 %
13.07.2023 14:48 23,6 C 23,9 C 20,0 C 58 % 1017,4 hPa 0,0 l/m 0 min 0 min 242 W/m 22,5 km/h (4 Bft) 89,36 %
13.07.2023 14:50 23,6 C 25,6 C 20,0 C 59 % 1017,5 hPa 0,0 l/m 2 min 0 min 442 W/m 16,1 km/h (3 Bft) 95,65 %
13.07.2023 14:52 23,7 C 27,2 C 20,0 C 59 % 1017,4 hPa 0,0 l/m 2 min 0 min 952 W/m 29,0 km/h (5 Bft) 95,74 %
13.07.2023 14:54 23,8 C 28,9 C 20,6 C 59 % 1017,4 hPa 0,0 l/m 2 min 0 min 910 W/m 16,1 km/h (3 Bft) 94,00 %
13.07.2023 14:56 24,1 C 28,9 C 20,6 C 59 % 1017,4 hPa 0,0 l/m 2 min 0 min 893 W/m 19,3 km/h (3 Bft) 93,62 %
13.07.2023 14:58 24,3 C 29,4 C 20,6 C 58 % 1017,4 hPa 0,0 l/m 2 min 0 min 927 W/m 22,5 km/h (4 Bft) 95,74 %
13.07.2023 15:00 24,4 C 28,3 C 20,6 C 58 % 1017,3 hPa 0,0 l/m 2 min 0 min 928 W/m 16,1 km/h (3 Bft) 93,62 %
13.07.2023 15:02 24,4 C 27,8 C 20,6 C 57 % 1017,4 hPa 0,0 l/m 2 min 0 min 921 W/m 22,5 km/h (4 Bft) 95,74 %
13.07.2023 15:04 24,4 C 26,7 C 20,6 C 57 % 1017,3 hPa 0,0 l/m 2 min 0 min 863 W/m 16,1 km/h (3 Bft) 95,74 %
13.07.2023 15:06 24,4 C 25,0 C 20,6 C 57 % 1017,3 hPa 0,0 l/m 0 min 0 min 269 W/m 19,3 km/h (3 Bft) 93,48 %
13.07.2023 15:08 24,3 C 23,9 C 20,0 C 57 % 1017,3 hPa 0,0 l/m 0 min 0 min 117 W/m 16,1 km/h (3 Bft) 95,74 %
13.07.2023 15:10 24,2 C 23,3 C 20,0 C 57 % 1017,3 hPa 0,0 l/m 0 min 0 min 82 W/m 16,1 km/h (3 Bft) 95,74 %
13.07.2023 15:12 23,9 C 23,3 C 19,4 C 58 % 1017,4 hPa 0,0 l/m 0 min 2 min 81 W/m 12,9 km/h (3 Bft) 95,74 %
13.07.2023 15:14 23,8 C 22,8 C 18,9 C 59 % 1017,4 hPa 0,0 l/m 0 min 2 min 104 W/m 16,1 km/h (3 Bft) 97,87 %
13.07.2023 15:16 23,5 C 22,2 C 17,8 C 61 % 1017,4 hPa 0,0 l/m 0 min 2 min 154 W/m 19,3 km/h (3 Bft) 100,00 %
13.07.2023 15:18 23,3 C 23,3 C 17,8 C 61 % 1017,4 hPa 0,0 l/m 0 min 0 min 235 W/m 16,1 km/h (3 Bft) 95,65 %
13.07.2023 15:20 23,2 C 25,0 C 18,3 C 62 % 1017,4 hPa 0,0 l/m 2 min 0 min 639 W/m 16,1 km/h (3 Bft) 100,00 %
13.07.2023 15:22 23,3 C 25,6 C 19,4 C 62 % 1017,4 hPa 0,0 l/m 2 min 0 min 639 W/m 16,1 km/h (3 Bft) 100,00 %
13.07.2023 15:24 23,5 C 25,6 C 19,4 C 60 % 1017,4 hPa 0,0 l/m 2 min 0 min 512 W/m 16,1 km/h (3 Bft) 97,87 %
13.07.2023 15:26 23,6 C 26,1 C 20,0 C 59 % 1017,4 hPa 0,0 l/m 2 min 0 min 512 W/m 35,4 km/h (5 Bft) 100,00 %
13.07.2023 15:28 23,7 C 26,1 C 20,0 C 59 % 1017,5 hPa 0,0 l/m 2 min 0 min 512 W/m 25,7 km/h (4 Bft) 100,00 %
13.07.2023 15:30 23,7 C 26,1 C 20,0 C 59 % 1017,5 hPa 0,0 l/m 2 min 0 min 487 W/m 19,3 km/h (3 Bft) 95,74 %
13.07.2023 15:32 23,7 C 27,2 C 20,0 C 59 % 1017,5 hPa 0,0 l/m 2 min 0 min 766 W/m 12,9 km/h (3 Bft) 97,83 %
13.07.2023 15:34 23,8 C 27,2 C 20,0 C 57 % 1017,5 hPa 0,0 l/m 2 min 0 min 988 W/m 16,1 km/h (3 Bft) 95,74 %
13.07.2023 15:36 23,9 C 27,8 C 20,0 C 58 % 1017,5 hPa 0,0 l/m 2 min 0 min 922 W/m 16,1 km/h (3 Bft) 95,74 %
13.07.2023 15:38 23,9 C 27,2 C 20,0 C 57 % 1017,5 hPa 0,0 l/m 2 min 0 min 812 W/m 16,1 km/h (3 Bft) 95,74 %
13.07.2023 15:40 24,0 C 27,2 C 20,0 C 58 % 1017,5 hPa 0,0 l/m 2 min 0 min 839 W/m 22,5 km/h (4 Bft) 97,87 %
13.07.2023 15:42 24,1 C 27,8 C 20,0 C 58 % 1017,5 hPa 0,0 l/m 2 min 0 min 864 W/m 16,1 km/h (3 Bft) 95,74 %
13.07.2023 15:44 24,2 C 27,8 C 20,0 C 57 % 1017,4 hPa 0,0 l/m 2 min 0 min 847 W/m 16,1 km/h (3 Bft) 97,83 %
13.07.2023 15:46 24,3 C 27,8 C 20,0 C 57 % 1017,5 hPa 0,0 l/m 2 min 0 min 828 W/m 12,9 km/h (3 Bft) 95,74 %
13.07.2023 15:48 24,4 C 27,2 C 20,6 C 57 % 1017,4 hPa 0,0 l/m 2 min 0 min 818 W/m 16,1 km/h (3 Bft) 95,74 %
13.07.2023 15:50 24,4 C 27,8 C 20,6 C 58 % 1017,4 hPa 0,0 l/m 2 min 0 min 733 W/m 16,1 km/h (3 Bft) 97,87 %
13.07.2023 15:52 24,5 C 27,8 C 20,6 C 58 % 1017,5 hPa 0,0 l/m 2 min 0 min 810 W/m 22,5 km/h (4 Bft) 97,87 %
13.07.2023 15:54 24,4 C 27,2 C 20,6 C 58 % 1017,4 hPa 0,0 l/m 2 min 0 min 750 W/m 22,5 km/h (4 Bft) 95,74 %
13.07.2023 15:56 24,4 C 27,8 C 20,6 C 59 % 1017,4 hPa 0,0 l/m 2 min 0 min 768 W/m 16,1 km/h (3 Bft) 95,74 %
13.07.2023 15:58 24,4 C 27,8 C 20,6 C 58 % 1017,5 hPa 0,0 l/m 2 min 0 min 772 W/m 19,3 km/h (3 Bft) 97,83 %
13.07.2023 16:00 24,5 C 27,8 C 20,6 C 58 % 1017,4 hPa 0,0 l/m 2 min 0 min 740 W/m 22,5 km/h (4 Bft) 95,74 %
13.07.2023 16:02 24,6 C 27,8 C 20,6 C 59 % 1017,4 hPa 0,0 l/m 2 min 0 min 721 W/m 19,3 km/h (3 Bft) 97,87 %
13.07.2023 16:04 24,6 C 27,2 C 20,6 C 59 % 1017,4 hPa 0,0 l/m 2 min 0 min 724 W/m 22,5 km/h (4 Bft) 97,87 %
13.07.2023 16:06 24,6 C 27,2 C 20,6 C 59 % 1017,4 hPa 0,0 l/m 2 min 0 min 752 W/m 12,9 km/h (3 Bft) 95,74 %
13.07.2023 16:08 24,7 C 27,8 C 20,6 C 59 % 1017,4 hPa 0,0 l/m 2 min 0 min 782 W/m 16,1 km/h (3 Bft) 97,87 %
13.07.2023 16:10 24,8 C 27,8 C 20,6 C 59 % 1017,4 hPa 0,0 l/m 2 min 0 min 774 W/m 12,9 km/h (3 Bft) 95,65 %
13.07.2023 16:12 24,8 C 27,8 C 20,6 C 59 % 1017,5 hPa 0,0 l/m 2 min 0 min 687 W/m 12,9 km/h (3 Bft) 95,74 %
13.07.2023 16:14 24,9 C 28,3 C 20,6 C 57 % 1017,5 hPa 0,0 l/m 2 min 0 min 717 W/m 12,9 km/h (3 Bft) 95,74 %
13.07.2023 16:16 25,0 C 26,7 C 20,6 C 56 % 1017,5 hPa 0,0 l/m 2 min 0 min 728 W/m 16,1 km/h (3 Bft) 100,00 %
13.07.2023 16:18 24,9 C 25,0 C 20,6 C 56 % 1017,5 hPa 0,0 l/m 0 min 0 min 166 W/m 12,9 km/h (3 Bft) 97,87 %
13.07.2023 16:20 24,7 C 24,4 C 20,0 C 57 % 1017,4 hPa 0,0 l/m 0 min 0 min 123 W/m 12,9 km/h (3 Bft) 100,00 %
13.07.2023 16:22 24,6 C 23,9 C 20,0 C 58 % 1017,5 hPa 0,0 l/m 0 min 0 min 120 W/m 6,4 km/h (2 Bft) 100,00 %
13.07.2023 16:24 24,4 C 23,3 C 20,0 C 58 % 1017,5 hPa 0,0 l/m 0 min 0 min 112 W/m 12,9 km/h (3 Bft) 97,83 %
13.07.2023 16:26 24,3 C 23,3 C 19,4 C 59 % 1017,5 hPa 0,0 l/m 0 min 0 min 98 W/m 6,4 km/h (2 Bft) 100,00 %
13.07.2023 16:28 24,1 C 22,8 C 19,4 C 59 % 1017,6 hPa 0,0 l/m 0 min 0 min 89 W/m 12,9 km/h (3 Bft) 97,87 %
13.07.2023 16:30 23,9 C 22,8 C 19,4 C 59 % 1017,6 hPa 0,0 l/m 0 min 0 min 93 W/m 22,5 km/h (4 Bft) 95,74 %
13.07.2023 16:32 23,8 C 22,8 C 18,9 C 60 % 1017,6 hPa 0,0 l/m 0 min 0 min 109 W/m 12,9 km/h (3 Bft) 100,00 %
13.07.2023 16:34 23,6 C 22,8 C 18,9 C 61 % 1017,5 hPa 0,0 l/m 0 min 0 min 134 W/m 19,3 km/h (3 Bft) 100,00 %
13.07.2023 16:36 23,4 C 22,8 C 18,9 C 61 % 1017,6 hPa 0,0 l/m 0 min 0 min 168 W/m 16,1 km/h (3 Bft) 97,87 %
13.07.2023 16:38 23,2 C 22,8 C 18,9 C 61 % 1017,6 hPa 0,0 l/m 0 min 0 min 195 W/m 19,3 km/h (3 Bft) 97,83 %
13.07.2023 16:40 23,1 C 22,8 C 18,9 C 60 % 1017,7 hPa 0,0 l/m 0 min 0 min 243 W/m 22,5 km/h (4 Bft) 100,00 %
13.07.2023 16:42 23,0 C 22,8 C 18,9 C 61 % 1017,7 hPa 0,0 l/m 0 min 0 min 274 W/m 9,7 km/h (2 Bft) 97,87 %
13.07.2023 16:44 23,0 C 23,3 C 19,4 C 62 % 1017,6 hPa 0,0 l/m 0 min 0 min 298 W/m 12,9 km/h (3 Bft) 97,87 %
13.07.2023 16:46 23,0 C 23,3 C 19,4 C 61 % 1017,8 hPa 0,0 l/m 0 min 0 min 302 W/m 25,7 km/h (4 Bft) 95,74 %
13.07.2023 16:48 23,0 C 23,3 C 19,4 C 61 % 1017,7 hPa 0,0 l/m 0 min 0 min 282 W/m 19,3 km/h (3 Bft) 95,74 %
13.07.2023 16:50 23,0 C 22,8 C 19,4 C 61 % 1017,7 hPa 0,0 l/m 0 min 0 min 261 W/m 22,5 km/h (4 Bft) 95,65 %
13.07.2023 16:52 22,9 C 22,8 C 19,4 C 60 % 1017,7 hPa 0,0 l/m 0 min 0 min 245 W/m 32,2 km/h (5 Bft) 97,87 %
13.07.2023 16:54 22,9 C 22,8 C 18,9 C 59 % 1017,8 hPa 0,0 l/m 0 min 0 min 226 W/m 22,5 km/h (4 Bft) 97,87 %
13.07.2023 16:56 22,8 C 22,2 C 18,9 C 59 % 1017,7 hPa 0,0 l/m 0 min 0 min 202 W/m 19,3 km/h (3 Bft) 95,74 %
13.07.2023 16:58 22,7 C 22,2 C 18,9 C 60 % 1017,7 hPa 0,0 l/m 0 min 0 min 186 W/m 16,1 km/h (3 Bft) 97,87 %
13.07.2023 17:00 22,6 C 22,2 C 18,9 C 61 % 1017,8 hPa 0,0 l/m 0 min 0 min 178 W/m 16,1 km/h (3 Bft) 93,62 %
13.07.2023 17:02 22,5 C 22,2 C 18,3 C 62 % 1017,8 hPa 0,0 l/m 0 min 0 min 179 W/m 19,3 km/h (3 Bft) 97,96 %
13.07.2023 17:04 22,4 C 21,7 C 18,3 C 62 % 1017,8 hPa 0,0 l/m 0 min 0 min 178 W/m 22,5 km/h (4 Bft) 97,87 %
13.07.2023 17:06 22,3 C 21,7 C 18,3 C 62 % 1017,8 hPa 0,0 l/m 0 min 0 min 176 W/m 22,5 km/h (4 Bft) 95,74 %
13.07.2023 17:08 22,2 C 21,7 C 18,3 C 63 % 1017,8 hPa 0,0 l/m 0 min 0 min 168 W/m 19,3 km/h (3 Bft) 95,74 %
13.07.2023 17:10 22,1 C 21,7 C 18,3 C 63 % 1017,9 hPa 0,0 l/m 0 min 0 min 147 W/m 29,0 km/h (5 Bft) 97,87 %
13.07.2023 17:12 22,0 C 21,1 C 18,3 C 64 % 1017,9 hPa 0,0 l/m 0 min 0 min 130 W/m 19,3 km/h (3 Bft) 95,74 %
13.07.2023 17:14 21,9 C 21,1 C 17,8 C 64 % 1017,9 hPa 0,0 l/m 0 min 0 min 117 W/m 16,1 km/h (3 Bft) 100,00 %
13.07.2023 17:16 21,8 C 21,1 C 17,8 C 65 % 1017,9 hPa 0,0 l/m 0 min 0 min 107 W/m 22,5 km/h (4 Bft) 100,00 %
13.07.2023 17:18 21,7 C 21,1 C 17,8 C 65 % 1017,9 hPa 0,0 l/m 0 min 0 min 97 W/m 19,3 km/h (3 Bft) 97,87 %
13.07.2023 17:20 21,6 C 20,6 C 17,8 C 65 % 1018,0 hPa 0,0 l/m 0 min 0 min 91 W/m 22,5 km/h (4 Bft) 95,74 %
13.07.2023 17:22 21,4 C 20,6 C 17,8 C 66 % 1018,1 hPa 0,0 l/m 0 min 0 min 88 W/m 16,1 km/h (3 Bft) 97,87 %
13.07.2023 17:24 21,3 C 20,6 C 17,2 C 67 % 1018,0 hPa 0,0 l/m 0 min 0 min 86 W/m 19,3 km/h (3 Bft) 100,00 %
13.07.2023 17:26 21,3 C 20,6 C 17,2 C 68 % 1018,2 hPa 0,0 l/m 0 min 0 min 81 W/m 19,3 km/h (3 Bft) 97,87 %
13.07.2023 17:28 21,2 C 20,6 C 17,2 C 68 % 1018,2 hPa 0,0 l/m 0 min 0 min 76 W/m 19,3 km/h (3 Bft) 100,00 %
13.07.2023 17:30 21,1 C 20,0 C 17,2 C 69 % 1018,2 hPa 0,0 l/m 0 min 0 min 73 W/m 16,1 km/h (3 Bft) 95,65 %
13.07.2023 17:32 21,1 C 20,0 C 17,2 C 70 % 1018,2 hPa 0,0 l/m 0 min 0 min 70 W/m 22,5 km/h (4 Bft) 100,00 %
13.07.2023 17:34 21,0 C 20,0 C 17,2 C 70 % 1018,2 hPa 0,0 l/m 0 min 0 min 67 W/m 12,9 km/h (3 Bft) 100,00 %
13.07.2023 17:36 20,9 C 20,0 C 17,2 C 70 % 1018,2 hPa 0,0 l/m 0 min 0 min 59 W/m 19,3 km/h (3 Bft) 95,74 %
13.07.2023 17:38 20,8 C 20,0 C 16,7 C 70 % 1018,2 hPa 0,0 l/m 0 min 0 min 54 W/m 16,1 km/h (3 Bft) 95,74 %
13.07.2023 17:40 20,7 C 20,0 C 16,7 C 71 % 1018,2 hPa 0,0 l/m 0 min 0 min 53 W/m 16,1 km/h (3 Bft) 97,87 %
13.07.2023 17:42 20,7 C 20,0 C 16,7 C 71 % 1018,2 hPa 0,0 l/m 0 min 0 min 54 W/m 12,9 km/h (3 Bft) 97,83 %
13.07.2023 17:44 20,7 C 20,0 C 16,7 C 71 % 1018,2 hPa 0,0 l/m 0 min 0 min 60 W/m 12,9 km/h (3 Bft) 97,87 %
13.07.2023 17:46 20,7 C 20,0 C 16,7 C 72 % 1018,2 hPa 0,0 l/m 0 min 0 min 65 W/m 9,7 km/h (2 Bft) 97,87 %
13.07.2023 17:48 20,6 C 20,0 C 16,7 C 72 % 1018,2 hPa 0,0 l/m 0 min 0 min 70 W/m 6,4 km/h (2 Bft) 97,87 %
13.07.2023 17:50 20,6 C 20,0 C 16,7 C 72 % 1018,1 hPa 0,0 l/m 0 min 0 min 72 W/m 12,9 km/h (3 Bft) 97,87 %
13.07.2023 17:52 20,6 C 20,0 C 16,7 C 72 % 1018,1 hPa 0,0 l/m 0 min 0 min 79 W/m 9,7 km/h (2 Bft) 97,87 %
13.07.2023 17:54 20,6 C 20,0 C 16,7 C 72 % 1018,0 hPa 0,0 l/m 0 min 0 min 91 W/m 12,9 km/h (3 Bft) 95,74 %
13.07.2023 17:56 20,6 C 20,0 C 16,7 C 71 % 1018,1 hPa 0,0 l/m 0 min 0 min 95 W/m 19,3 km/h (3 Bft) 97,83 %
13.07.2023 17:58 20,6 C 20,0 C 16,7 C 71 % 1018,0 hPa 0,0 l/m 0 min 0 min 91 W/m 6,4 km/h (2 Bft) 97,87 %
13.07.2023 18:00 20,6 C 20,0 C 16,7 C 71 % 1018,1 hPa 0,0 l/m 0 min 0 min 87 W/m 16,1 km/h (3 Bft) 97,87 %
13.07.2023 18:02 20,6 C 20,0 C 16,7 C 71 % 1018,0 hPa 0,0 l/m 0 min 0 min 90 W/m 12,9 km/h (3 Bft) 95,74 %
13.07.2023 18:04 20,6 C 20,0 C 16,7 C 70 % 1018,0 hPa 0,0 l/m 0 min 0 min 95 W/m 22,5 km/h (4 Bft) 97,87 %
13.07.2023 18:07 20,6 C 20,0 C 16,7 C 69 % 1018,0 hPa 0,0 l/m 0 min 0 min 95 W/m 16,1 km/h (3 Bft) 94,37 %
13.07.2023 18:08 20,6 C 20,0 C 16,7 C 69 % 1018,0 hPa 0,0 l/m 0 min 0 min 91 W/m 3,2 km/h (1 Bft) 95,83 %
13.07.2023 18:12 20,6 C 20,0 C 16,7 C 69 % 1018,0 hPa 0,0 l/m 0 min 0 min 82 W/m 19,3 km/h (3 Bft) 92,06 %
13.07.2023 18:14 20,6 C 20,0 C 17,2 C 70 % 1017,9 hPa 0,0 l/m 0 min 0 min 79 W/m 16,1 km/h (3 Bft) 95,74 %
13.07.2023 18:16 20,6 C 20,0 C 16,7 C 70 % 1017,9 hPa 0,0 l/m 0 min 0 min 80 W/m 12,9 km/h (3 Bft) 89,36 %
13.07.2023 18:18 20,6 C 20,0 C 16,7 C 70 % 1017,9 hPa 0,0 l/m 0 min 0 min 82 W/m 6,4 km/h (2 Bft) 97,87 %
13.07.2023 18:20 20,6 C 20,0 C 16,7 C 70 % 1017,9 hPa 0,0 l/m 0 min 0 min 80 W/m 6,4 km/h (2 Bft) 95,65 %
13.07.2023 18:22 20,6 C 20,0 C 16,7 C 70 % 1018,0 hPa 0,0 l/m 0 min 0 min 79 W/m 6,4 km/h (2 Bft) 93,62 %
13.07.2023 18:24 20,6 C 20,0 C 16,7 C 70 % 1018,0 hPa 0,0 l/m 0 min 0 min 81 W/m 9,7 km/h (2 Bft) 93,62 %
13.07.2023 18:26 20,6 C 20,0 C 16,7 C 70 % 1017,9 hPa 0,0 l/m 0 min 0 min 85 W/m 3,2 km/h (1 Bft) 93,62 %
13.07.2023 18:28 20,6 C 20,0 C 16,7 C 70 % 1017,9 hPa 0,0 l/m 0 min 0 min 91 W/m 6,4 km/h (2 Bft) 95,74 %
13.07.2023 18:30 20,6 C 20,0 C 16,7 C 70 % 1017,9 hPa 0,0 l/m 0 min 0 min 100 W/m 6,4 km/h (2 Bft) 91,49 %
13.07.2023 18:32 20,6 C 20,0 C 16,7 C 70 % 1018,0 hPa 0,0 l/m 0 min 0 min 106 W/m 6,4 km/h (2 Bft) 95,65 %
13.07.2023 18:34 20,6 C 20,0 C 16,7 C 69 % 1018,0 hPa 0,0 l/m 0 min 0 min 105 W/m 12,9 km/h (3 Bft) 97,87 %
13.07.2023 18:36 20,7 C 20,0 C 16,7 C 70 % 1018,0 hPa 0,0 l/m 0 min 0 min 100 W/m 6,4 km/h (2 Bft) 97,87 %
13.07.2023 18:38 20,7 C 20,0 C 16,7 C 70 % 1017,9 hPa 0,0 l/m 0 min 0 min 94 W/m 6,4 km/h (2 Bft) 93,62 %
13.07.2023 18:40 20,7 C 20,0 C 16,7 C 70 % 1017,9 hPa 0,0 l/m 0 min 0 min 89 W/m 6,4 km/h (2 Bft) 95,74 %
13.07.2023 18:42 20,7 C 20,0 C 16,7 C 69 % 1017,9 hPa 0,0 l/m 0 min 0 min 88 W/m 9,7 km/h (2 Bft) 95,74 %
13.07.2023 18:44 20,7 C 20,6 C 16,7 C 69 % 1017,9 hPa 0,0 l/m 0 min 0 min 93 W/m 6,4 km/h (2 Bft) 95,74 %
13.07.2023 18:46 20,7 C 20,6 C 17,2 C 69 % 1017,8 hPa 0,0 l/m 0 min 0 min 106 W/m 6,4 km/h (2 Bft) 93,62 %
13.07.2023 18:48 20,7 C 20,6 C 16,7 C 68 % 1017,9 hPa 0,0 l/m 0 min 0 min 124 W/m 12,9 km/h (3 Bft) 95,65 %
13.07.2023 18:50 20,7 C 20,6 C 17,2 C 68 % 1017,9 hPa 0,0 l/m 0 min 0 min 142 W/m 3,2 km/h (1 Bft) 95,74 %
13.07.2023 18:52 20,8 C 21,1 C 17,2 C 69 % 1017,9 hPa 0,0 l/m 0 min 0 min 156 W/m 3,2 km/h (1 Bft) 89,36 %
13.07.2023 18:54 20,8 C 21,1 C 17,2 C 69 % 1017,9 hPa 0,0 l/m 0 min 0 min 170 W/m 6,4 km/h (2 Bft) 95,74 %
13.07.2023 18:56 20,9 C 21,1 C 17,2 C 68 % 1017,9 hPa 0,0 l/m 0 min 0 min 179 W/m 3,2 km/h (1 Bft) 97,87 %
13.07.2023 18:58 20,9 C 21,1 C 17,2 C 68 % 1017,9 hPa 0,0 l/m 2 min 0 min 204 W/m 9,7 km/h (2 Bft) 97,87 %
13.07.2023 19:00 21,0 C 21,7 C 17,8 C 68 % 1017,9 hPa 0,0 l/m 2 min 0 min 244 W/m 6,4 km/h (2 Bft) 97,87 %
13.07.2023 19:02 21,1 C 21,7 C 17,8 C 67 % 1017,9 hPa 0,0 l/m 2 min 0 min 220 W/m 6,4 km/h (2 Bft) 95,65 %
13.07.2023 19:04 21,1 C 22,2 C 17,8 C 65 % 1017,9 hPa 0,0 l/m 2 min 0 min 265 W/m 16,1 km/h (3 Bft) 97,87 %
13.07.2023 19:06 21,2 C 23,3 C 17,8 C 65 % 1017,9 hPa 0,0 l/m 2 min 0 min 347 W/m 9,7 km/h (2 Bft) 97,87 %
13.07.2023 19:08 21,3 C 23,9 C 18,3 C 66 % 1017,9 hPa 0,0 l/m 2 min 0 min 338 W/m 3,2 km/h (1 Bft) 95,74 %
13.07.2023 19:10 21,4 C 24,4 C 18,3 C 64 % 1017,9 hPa 0,0 l/m 2 min 0 min 324 W/m 6,4 km/h (2 Bft) 97,87 %
13.07.2023 19:12 21,6 C 24,4 C 18,3 C 64 % 1017,9 hPa 0,0 l/m 2 min 0 min 308 W/m 6,4 km/h (2 Bft) 97,87 %
13.07.2023 19:14 21,7 C 25,0 C 18,3 C 63 % 1017,9 hPa 0,0 l/m 2 min 0 min 296 W/m 6,4 km/h (2 Bft) 100,00 %
13.07.2023 19:16 21,8 C 25,0 C 18,3 C 64 % 1018,0 hPa 0,0 l/m 2 min 0 min 283 W/m 12,9 km/h (3 Bft) 100,00 %
13.07.2023 19:18 21,9 C 24,4 C 18,3 C 62 % 1018,0 hPa 0,0 l/m 2 min 0 min 270 W/m 16,1 km/h (3 Bft) 97,87 %
13.07.2023 19:20 21,9 C 23,9 C 18,3 C 62 % 1018,0 hPa 0,0 l/m 2 min 0 min 254 W/m 6,4 km/h (2 Bft) 100,00 %
13.07.2023 19:22 22,0 C 23,9 C 18,3 C 62 % 1018,0 hPa 0,0 l/m 2 min 0 min 245 W/m 9,7 km/h (2 Bft) 100,00 %
13.07.2023 19:24 22,0 C 23,9 C 18,3 C 62 % 1018,0 hPa 0,0 l/m 2 min 0 min 230 W/m 12,9 km/h (3 Bft) 100,00 %
13.07.2023 19:26 22,0 C 23,3 C 18,3 C 62 % 1018,0 hPa 0,0 l/m 2 min 0 min 219 W/m 16,1 km/h (3 Bft) 100,00 %
13.07.2023 19:28 22,0 C 23,3 C 17,8 C 62 % 1018,1 hPa 0,0 l/m 2 min 0 min 211 W/m 9,7 km/h (2 Bft) 100,00 %
13.07.2023 19:30 22,0 C 23,3 C 17,8 C 61 % 1018,1 hPa 0,0 l/m 2 min 0 min 208 W/m 16,1 km/h (3 Bft) 100,00 %
13.07.2023 19:32 21,9 C 22,8 C 17,8 C 61 % 1018,1 hPa 0,0 l/m 2 min 0 min 205 W/m 12,9 km/h (3 Bft) 100,00 %
13.07.2023 19:34 21,9 C 22,8 C 17,8 C 62 % 1018,1 hPa 0,0 l/m 2 min 0 min 199 W/m 12,9 km/h (3 Bft) 100,00 %
13.07.2023 19:36 21,9 C 22,2 C 17,8 C 61 % 1018,1 hPa 0,0 l/m 2 min 0 min 192 W/m 12,9 km/h (3 Bft) 100,00 %
13.07.2023 19:38 21,8 C 21,7 C 17,8 C 61 % 1018,1 hPa 0,0 l/m 2 min 0 min 185 W/m 12,9 km/h (3 Bft) 97,87 %
13.07.2023 19:40 21,8 C 21,7 C 17,8 C 61 % 1018,1 hPa 0,0 l/m 2 min 0 min 179 W/m 9,7 km/h (2 Bft) 100,00 %
13.07.2023 19:42 21,8 C 21,1 C 17,8 C 62 % 1018,0 hPa 0,0 l/m 2 min 0 min 173 W/m 6,4 km/h (2 Bft) 100,00 %
13.07.2023 19:44 21,7 C 21,1 C 17,2 C 62 % 1018,0 hPa 0,0 l/m 2 min 0 min 166 W/m 12,9 km/h (3 Bft) 100,00 %
13.07.2023 19:46 21,7 C 21,1 C 17,2 C 62 % 1018,0 hPa 0,0 l/m 2 min 0 min 161 W/m 6,4 km/h (2 Bft) 100,00 %
13.07.2023 19:48 21,7 C 21,1 C 17,2 C 62 % 1018,0 hPa 0,0 l/m 2 min 0 min 157 W/m 6,4 km/h (2 Bft) 100,00 %
13.07.2023 19:50 21,7 C 21,1 C 17,2 C 63 % 1018,0 hPa 0,0 l/m 2 min 0 min 152 W/m 12,9 km/h (3 Bft) 100,00 %
13.07.2023 19:52 21,6 C 21,1 C 17,2 C 62 % 1018,1 hPa 0,0 l/m 2 min 0 min 148 W/m 6,4 km/h (2 Bft) 100,00 %
13.07.2023 19:54 21,7 C 21,1 C 17,2 C 63 % 1018,0 hPa 0,0 l/m 2 min 0 min 137 W/m 9,7 km/h (2 Bft) 100,00 %
13.07.2023 19:56 21,6 C 21,1 C 17,2 C 62 % 1018,1 hPa 0,0 l/m 0 min 0 min 110 W/m 12,9 km/h (3 Bft) 100,00 %
13.07.2023 19:58 21,6 C 21,1 C 17,2 C 62 % 1018,0 hPa 0,0 l/m 0 min 0 min 97 W/m 6,4 km/h (2 Bft) 100,00 %
13.07.2023 20:00 21,5 C 20,6 C 17,2 C 63 % 1018,1 hPa 0,0 l/m 0 min 0 min 93 W/m 12,9 km/h (3 Bft) 100,00 %
13.07.2023 20:02 21,5 C 20,6 C 17,2 C 63 % 1018,1 hPa 0,0 l/m 0 min 0 min 90 W/m 6,4 km/h (2 Bft) 100,00 %
13.07.2023 20:04 21,5 C 20,6 C 17,2 C 63 % 1018,1 hPa 0,0 l/m 0 min 0 min 88 W/m 3,2 km/h (1 Bft) 100,00 %
13.07.2023 20:06 21,4 C 20,6 C 17,2 C 63 % 1018,1 hPa 0,0 l/m 0 min 0 min 87 W/m 6,4 km/h (2 Bft) 98,31 %
13.07.2023 20:08 21,4 C 20,6 C 17,2 C 63 % 1018,2 hPa 0,0 l/m 0 min 0 min 85 W/m 9,7 km/h (2 Bft) 100,00 %
13.07.2023 20:10 21,4 C 20,6 C 17,2 C 64 % 1018,2 hPa 0,0 l/m 0 min 0 min 83 W/m 12,9 km/h (3 Bft) 100,00 %
13.07.2023 20:12 21,3 C 20,6 C 17,2 C 64 % 1018,2 hPa 0,0 l/m 0 min 0 min 81 W/m 6,4 km/h (2 Bft) 100,00 %
13.07.2023 20:14 21,3 C 20,6 C 17,2 C 65 % 1018,2 hPa 0,0 l/m 0 min 0 min 77 W/m 3,2 km/h (1 Bft) 100,00 %
13.07.2023 20:16 21,3 C 20,6 C 17,2 C 65 % 1018,2 hPa 0,0 l/m 0 min 0 min 74 W/m 3,2 km/h (1 Bft) 100,00 %
13.07.2023 20:18 21,3 C 20,6 C 17,2 C 65 % 1018,2 hPa 0,0 l/m 0 min 0 min 74 W/m 6,4 km/h (2 Bft) 100,00 %
13.07.2023 20:20 21,3 C 20,6 C 17,2 C 65 % 1018,2 hPa 0,0 l/m 0 min 0 min 72 W/m 9,7 km/h (2 Bft) 100,00 %
13.07.2023 20:22 21,2 C 20,6 C 17,2 C 65 % 1018,2 hPa 0,0 l/m 0 min 0 min 70 W/m 6,4 km/h (2 Bft) 97,87 %
13.07.2023 20:24 21,2 C 20,6 C 17,2 C 65 % 1018,1 hPa 0,0 l/m 0 min 0 min 69 W/m 12,9 km/h (3 Bft) 100,00 %
13.07.2023 20:26 21,1 C 20,6 C 17,2 C 65 % 1018,2 hPa 0,0 l/m 0 min 0 min 66 W/m 3,2 km/h (1 Bft) 100,00 %
13.07.2023 20:28 21,1 C 20,6 C 17,2 C 65 % 1018,3 hPa 0,0 l/m 0 min 0 min 64 W/m 6,4 km/h (2 Bft) 100,00 %
13.07.2023 20:30 21,1 C 20,6 C 17,2 C 66 % 1018,2 hPa 0,0 l/m 0 min 0 min 62 W/m 0,0 km/h (0 Bft) 100,00 %
13.07.2023 20:32 21,1 C 20,0 C 17,2 C 66 % 1018,2 hPa 0,0 l/m 0 min 0 min 61 W/m 12,9 km/h (3 Bft) 100,00 %
13.07.2023 20:34 21,1 C 20,0 C 16,7 C 66 % 1018,3 hPa 0,0 l/m 0 min 0 min 58 W/m 6,4 km/h (2 Bft) 93,62 %
13.07.2023 20:36 21,0 C 20,0 C 16,7 C 66 % 1018,2 hPa 0,0 l/m 0 min 0 min 55 W/m 3,2 km/h (1 Bft) 100,00 %
13.07.2023 20:38 21,0 C 20,0 C 16,7 C 66 % 1018,2 hPa 0,0 l/m 0 min 0 min 53 W/m 3,2 km/h (1 Bft) 100,00 %
13.07.2023 20:40 21,0 C 20,0 C 16,7 C 66 % 1018,2 hPa 0,0 l/m 0 min 0 min 51 W/m 3,2 km/h (1 Bft) 95,74 %
13.07.2023 20:42 21,0 C 20,0 C 16,7 C 66 % 1018,2 hPa 0,0 l/m 0 min 0 min 49 W/m 3,2 km/h (1 Bft) 97,83 %
13.07.2023 20:44 20,9 C 20,0 C 16,7 C 67 % 1018,2 hPa 0,0 l/m 0 min 0 min 47 W/m 3,2 km/h (1 Bft) 93,62 %
13.07.2023 20:46 20,9 C 20,0 C 16,7 C 67 % 1018,2 hPa 0,0 l/m 0 min 0 min 45 W/m 6,4 km/h (2 Bft) 95,74 %
13.07.2023 20:48 20,9 C 20,0 C 16,7 C 67 % 1018,2 hPa 0,0 l/m 0 min 0 min 43 W/m 3,2 km/h (1 Bft) 95,74 %
13.07.2023 20:50 20,9 C 19,4 C 16,7 C 67 % 1018,3 hPa 0,0 l/m 0 min 0 min 41 W/m 3,2 km/h (1 Bft) 95,74 %
13.07.2023 20:52 20,8 C 19,4 C 16,1 C 67 % 1018,2 hPa 0,0 l/m 0 min 0 min 40 W/m 3,2 km/h (1 Bft) 91,49 %
13.07.2023 20:54 20,8 C 19,4 C 16,1 C 68 % 1018,3 hPa 0,0 l/m 0 min 0 min 38 W/m 3,2 km/h (1 Bft) 93,62 %
13.07.2023 20:56 20,8 C 19,4 C 16,1 C 68 % 1018,3 hPa 0,0 l/m 0 min 0 min 36 W/m 3,2 km/h (1 Bft) 91,30 %
13.07.2023 20:58 20,7 C 19,4 C 16,1 C 68 % 1018,3 hPa 0,0 l/m 0 min 0 min 34 W/m 3,2 km/h (1 Bft) 93,62 %
13.07.2023 21:00 20,7 C 19,4 C 16,1 C 68 % 1018,3 hPa 0,0 l/m 0 min 0 min 32 W/m 3,2 km/h (1 Bft) 91,49 %
13.07.2023 21:02 20,6 C 19,4 C 16,1 C 68 % 1018,2 hPa 0,0 l/m 0 min 0 min 31 W/m 3,2 km/h (1 Bft) 93,62 %
13.07.2023 21:04 20,6 C 19,4 C 16,1 C 68 % 1018,3 hPa 0,0 l/m 0 min 0 min 29 W/m 3,2 km/h (1 Bft) 93,62 %
13.07.2023 21:06 20,6 C 18,9 C 16,1 C 69 % 1018,3 hPa 0,0 l/m 0 min 0 min 27 W/m 0,0 km/h (0 Bft) 93,10 %
13.07.2023 21:08 20,6 C 18,9 C 16,1 C 69 % 1018,3 hPa 0,0 l/m 0 min 0 min 25 W/m 0,0 km/h (0 Bft) 94,29 %
13.07.2023 21:10 20,4 C 18,9 C 16,1 C 69 % 1018,3 hPa 0,0 l/m 0 min 0 min 24 W/m 3,2 km/h (1 Bft) 91,49 %
13.07.2023 21:12 20,4 C 18,9 C 15,6 C 70 % 1018,3 hPa 0,0 l/m 0 min 0 min 23 W/m 3,2 km/h (1 Bft) 95,74 %
13.07.2023 21:14 20,3 C 18,9 C 15,6 C 70 % 1018,3 hPa 0,0 l/m 0 min 0 min 20 W/m 3,2 km/h (1 Bft) 93,62 %
13.07.2023 21:16 20,3 C 18,9 C 16,1 C 70 % 1018,3 hPa 0,0 l/m 0 min 0 min 19 W/m 3,2 km/h (1 Bft) 95,74 %
13.07.2023 21:18 20,3 C 18,9 C 16,1 C 70 % 1018,3 hPa 0,0 l/m 0 min 0 min 18 W/m 3,2 km/h (1 Bft) 95,74 %
13.07.2023 21:20 20,2 C 18,9 C 16,1 C 70 % 1018,3 hPa 0,0 l/m 0 min 0 min 16 W/m 3,2 km/h (1 Bft) 93,62 %
13.07.2023 21:22 20,2 C 18,9 C 15,6 C 70 % 1018,4 hPa 0,0 l/m 0 min 0 min 15 W/m 0,0 km/h (0 Bft) 97,83 %
13.07.2023 21:24 20,1 C 18,9 C 15,6 C 71 % 1018,4 hPa 0,0 l/m 0 min 0 min 13 W/m 0,0 km/h (0 Bft) 95,74 %
13.07.2023 21:26 20,1 C 18,9 C 15,6 C 71 % 1018,4 hPa 0,0 l/m 0 min 0 min 12 W/m 3,2 km/h (1 Bft) 93,62 %
13.07.2023 21:28 20,1 C 18,9 C 15,6 C 72 % 1018,4 hPa 0,0 l/m 0 min 0 min 11 W/m 0,0 km/h (0 Bft) 93,62 %
13.07.2023 21:30 20,0 C 18,3 C 15,6 C 72 % 1018,4 hPa 0,0 l/m 0 min 0 min 9 W/m 0,0 km/h (0 Bft) 93,62 %
13.07.2023 21:32 19,9 C 18,3 C 15,6 C 72 % 1018,4 hPa 0,0 l/m 0 min 0 min 7 W/m 0,0 km/h (0 Bft) 97,87 %
13.07.2023 21:34 19,9 C 18,3 C 15,0 C 72 % 1018,4 hPa 0,0 l/m 0 min 0 min 7 W/m 0,0 km/h (0 Bft) 95,74 %
13.07.2023 21:36 19,8 C 18,3 C 15,0 C 72 % 1018,5 hPa 0,0 l/m 0 min 0 min 5 W/m 3,2 km/h (1 Bft) 97,83 %
13.07.2023 21:38 19,8 C 18,3 C 15,0 C 72 % 1018,5 hPa 0,0 l/m 0 min 0 min 3 W/m 0,0 km/h (0 Bft) 100,00 %
13.07.2023 21:40 19,7 C 18,3 C 15,0 C 73 % 1018,5 hPa 0,0 l/m 0 min 0 min 0 W/m 0,0 km/h (0 Bft) 97,87 %
13.07.2023 21:42 19,7 C 17,8 C 15,0 C 73 % 1018,5 hPa 0,0 l/m 0 min 0 min 0 W/m 0,0 km/h (0 Bft) 100,00 %
13.07.2023 21:44 19,7 C 17,8 C 14,4 C 74 % 1018,5 hPa 0,0 l/m 0 min 0 min 0 W/m 0,0 km/h (0 Bft) 97,87 %
13.07.2023 21:46 19,6 C 17,8 C 14,4 C 74 % 1018,5 hPa 0,0 l/m 0 min 0 min 0 W/m 0,0 km/h (0 Bft) 100,00 %
13.07.2023 21:48 19,6 C 17,8 C 14,4 C 74 % 1018,5 hPa 0,0 l/m 0 min 0 min 0 W/m 0,0 km/h (0 Bft) 100,00 %
13.07.2023 21:50 19,5 C 17,8 C 14,4 C 74 % 1018,5 hPa 0,0 l/m 0 min 0 min 0 W/m 0,0 km/h (0 Bft) 100,00 %
13.07.2023 21:52 19,4 C 17,8 C 14,4 C 75 % 1018,5 hPa 0,0 l/m 0 min 0 min 0 W/m 0,0 km/h (0 Bft) 100,00 %
13.07.2023 21:54 19,4 C 17,8 C 14,4 C 75 % 1018,6 hPa 0,0 l/m 0 min 0 min 0 W/m 0,0 km/h (0 Bft) 100,00 %
13.07.2023 21:56 19,4 C 17,8 C 14,4 C 76 % 1018,6 hPa 0,0 l/m 0 min 0 min 0 W/m 0,0 km/h (0 Bft) 100,00 %
13.07.2023 21:58 19,3 C 17,8 C 14,4 C 75 % 1018,6 hPa 0,0 l/m 0 min 0 min 0 W/m 0,0 km/h (0 Bft) 100,00 %
13.07.2023 22:00 19,3 C 17,8 C 14,4 C 75 % 1018,6 hPa 0,0 l/m 0 min 0 min 0 W/m 0,0 km/h (0 Bft) 100,00 %
13.07.2023 22:02 19,2 C 17,8 C 14,4 C 75 % 1018,6 hPa 0,0 l/m 0 min 0 min 0 W/m 0,0 km/h (0 Bft) 95,74 %
13.07.2023 22:04 19,2 C 17,8 C 14,4 C 76 % 1018,6 hPa 0,0 l/m 0 min 0 min 0 W/m 0,0 km/h (0 Bft) 100,00 %
13.07.2023 22:06 19,1 C 17,8 C 14,4 C 76 % 1018,6 hPa 0,0 l/m 0 min 0 min 0 W/m 0,0 km/h (0 Bft) 100,00 %
13.07.2023 22:08 19,1 C 17,2 C 14,4 C 76 % 1018,6 hPa 0,0 l/m 0 min 0 min 0 W/m 0,0 km/h (0 Bft) 100,00 %
13.07.2023 22:10 19,0 C 17,2 C 14,4 C 75 % 1018,6 hPa 0,0 l/m 0 min 0 min 0 W/m 0,0 km/h (0 Bft) 100,00 %
13.07.2023 22:12 19,0 C 17,2 C 14,4 C 75 % 1018,7 hPa 0,0 l/m 0 min 0 min 0 W/m 3,2 km/h (1 Bft) 100,00 %
13.07.2023 22:14 18,9 C 17,8 C 14,4 C 76 % 1018,7 hPa 0,0 l/m 0 min 0 min 0 W/m 6,4 km/h (2 Bft) 100,00 %
13.07.2023 22:16 18,9 C 17,2 C 14,4 C 76 % 1018,7 hPa 0,0 l/m 0 min 0 min 0 W/m 3,2 km/h (1 Bft) 97,87 %
13.07.2023 22:18 18,9 C 17,2 C 14,4 C 76 % 1018,6 hPa 0,0 l/m 0 min 0 min 0 W/m 0,0 km/h (0 Bft) 100,00 %
13.07.2023 22:20 18,9 C 17,2 C 14,4 C 76 % 1018,7 hPa 0,0 l/m 0 min 0 min 0 W/m 0,0 km/h (0 Bft) 97,87 %
13.07.2023 22:22 18,8 C 17,2 C 13,9 C 76 % 1018,7 hPa 0,0 l/m 0 min 0 min 0 W/m 0,0 km/h (0 Bft) 100,00 %
13.07.2023 22:24 18,8 C 17,2 C 13,9 C 77 % 1018,7 hPa 0,0 l/m 0 min 0 min 0 W/m 0,0 km/h (0 Bft) 100,00 %
13.07.2023 22:26 18,8 C 17,2 C 13,9 C 77 % 1018,7 hPa 0,0 l/m 0 min 0 min 0 W/m 0,0 km/h (0 Bft) 97,96 %
13.07.2023 22:28 18,8 C 17,2 C 13,9 C 78 % 1018,7 hPa 0,0 l/m 0 min 0 min 0 W/m 0,0 km/h (0 Bft) 97,87 %
13.07.2023 22:30 18,7 C 16,7 C 13,9 C 78 % 1018,7 hPa 0,0 l/m 0 min 0 min 0 W/m 0,0 km/h (0 Bft) 97,87 %
13.07.2023 22:32 18,7 C 16,7 C 13,9 C 78 % 1018,7 hPa 0,0 l/m 0 min 0 min 0 W/m 0,0 km/h (0 Bft) 97,56 %
13.07.2023 22:34 18,6 C 16,7 C 13,9 C 78 % 1018,7 hPa 0,0 l/m 0 min 0 min 0 W/m 0,0 km/h (0 Bft) 96,36 %
13.07.2023 22:36 18,6 C 16,7 C 13,3 C 79 % 1018,7 hPa 0,0 l/m 0 min 0 min 0 W/m 0,0 km/h (0 Bft) 97,87 %
13.07.2023 22:38 18,6 C 16,7 C 13,3 C 79 % 1018,7 hPa 0,0 l/m 0 min 0 min 0 W/m 0,0 km/h (0 Bft) 97,87 %
13.07.2023 22:40 18,5 C 16,7 C 13,3 C 79 % 1018,7 hPa 0,0 l/m 0 min 0 min 0 W/m 0,0 km/h (0 Bft) 97,87 %
13.07.2023 22:42 18,4 C 16,1 C 13,3 C 80 % 1018,7 hPa 0,0 l/m 0 min 0 min 0 W/m 0,0 km/h (0 Bft) 95,74 %
13.07.2023 22:44 18,4 C 16,1 C 13,3 C 80 % 1018,7 hPa 0,0 l/m 0 min 0 min 0 W/m 0,0 km/h (0 Bft) 95,74 %
13.07.2023 22:46 18,3 C 16,1 C 13,3 C 80 % 1018,7 hPa 0,0 l/m 0 min 0 min 0 W/m 0,0 km/h (0 Bft) 97,87 %
13.07.2023 22:48 18,2 C 16,1 C 13,3 C 80 % 1018,7 hPa 0,0 l/m 0 min 0 min 0 W/m 0,0 km/h (0 Bft) 95,74 %
13.07.2023 22:50 18,2 C 16,1 C 13,3 C 80 % 1018,7 hPa 0,0 l/m 0 min 0 min 0 W/m 0,0 km/h (0 Bft) 97,87 %
13.07.2023 22:52 18,2 C 16,1 C 13,3 C 81 % 1018,7 hPa 0,0 l/m 0 min 0 min 0 W/m 0,0 km/h (0 Bft) 95,65 %
13.07.2023 22:54 18,1 C 16,1 C 13,3 C 81 % 1018,8 hPa 0,0 l/m 0 min 0 min 0 W/m 0,0 km/h (0 Bft) 95,74 %
13.07.2023 22:56 18,1 C 16,1 C 13,3 C 81 % 1018,7 hPa 0,0 l/m 0 min 0 min 0 W/m 0,0 km/h (0 Bft) 97,87 %
13.07.2023 22:58 18,0 C 16,1 C 13,3 C 81 % 1018,7 hPa 0,0 l/m 0 min 0 min 0 W/m 0,0 km/h (0 Bft) 100,00 %
13.07.2023 23:00 17,9 C 16,1 C 12,8 C 81 % 1018,7 hPa 0,0 l/m 0 min 0 min 0 W/m 0,0 km/h (0 Bft) 100,00 %
13.07.2023 23:02 17,9 C 16,1 C 12,8 C 81 % 1018,7 hPa 0,0 l/m 0 min 0 min 0 W/m 0,0 km/h (0 Bft) 100,00 %
13.07.2023 23:04 17,8 C 16,1 C 12,8 C 81 % 1018,7 hPa 0,0 l/m 0 min 0 min 0 W/m 0,0 km/h (0 Bft) 100,00 %
13.07.2023 23:06 17,8 C 16,1 C 12,8 C 82 % 1018,7 hPa 0,0 l/m 0 min 0 min 0 W/m 0,0 km/h (0 Bft) 100,00 %
13.07.2023 23:08 17,8 C 16,1 C 12,8 C 82 % 1018,7 hPa 0,0 l/m 0 min 0 min 0 W/m 0,0 km/h (0 Bft) 100,00 %
13.07.2023 23:10 17,7 C 16,1 C 12,8 C 82 % 1018,7 hPa 0,0 l/m 0 min 0 min 0 W/m 0,0 km/h (0 Bft) 97,87 %
13.07.2023 23:12 17,7 C 16,1 C 12,8 C 82 % 1018,7 hPa 0,0 l/m 0 min 0 min 0 W/m 0,0 km/h (0 Bft) 97,87 %
13.07.2023 23:14 17,6 C 16,1 C 12,8 C 82 % 1018,7 hPa 0,0 l/m 0 min 0 min 0 W/m 0,0 km/h (0 Bft) 97,87 %
13.07.2023 23:16 17,6 C 16,1 C 12,8 C 82 % 1018,7 hPa 0,0 l/m 0 min 0 min 0 W/m 0,0 km/h (0 Bft) 95,74 %
13.07.2023 23:18 17,5 C 16,1 C 12,8 C 83 % 1018,7 hPa 0,0 l/m 0 min 0 min 0 W/m 0,0 km/h (0 Bft) 97,14 %
13.07.2023 23:20 17,5 C 16,1 C 12,8 C 83 % 1018,7 hPa 0,0 l/m 0 min 0 min 0 W/m 0,0 km/h (0 Bft) 98,28 %
13.07.2023 23:22 17,4 C 15,6 C 12,8 C 83 % 1018,6 hPa 0,0 l/m 0 min 0 min 0 W/m 0,0 km/h (0 Bft) 97,14 %
13.07.2023 23:24 17,4 C 16,1 C 12,8 C 83 % 1018,7 hPa 0,0 l/m 0 min 0 min 0 W/m 0,0 km/h (0 Bft) 100,00 %
13.07.2023 23:26 17,3 C 15,6 C 12,8 C 83 % 1018,7 hPa 0,0 l/m 0 min 0 min 0 W/m 0,0 km/h (0 Bft) 100,00 %
13.07.2023 23:28 17,3 C 15,6 C 12,8 C 83 % 1018,7 hPa 0,0 l/m 0 min 0 min 0 W/m 0,0 km/h (0 Bft) 97,14 %
13.07.2023 23:30 17,3 C 15,6 C 12,8 C 83 % 1018,8 hPa 0,0 l/m 0 min 0 min 0 W/m 0,0 km/h (0 Bft) 97,87 %
13.07.2023 23:32 17,2 C 15,6 C 12,8 C 83 % 1018,7 hPa 0,0 l/m 0 min 0 min 0 W/m 0,0 km/h (0 Bft) 100,00 %
13.07.2023 23:34 17,2 C 15,6 C 12,8 C 83 % 1018,8 hPa 0,0 l/m 0 min 0 min 0 W/m 3,2 km/h (1 Bft) 97,87 %
13.07.2023 23:36 17,1 C 15,6 C 12,8 C 83 % 1018,8 hPa 0,0 l/m 0 min 0 min 0 W/m 0,0 km/h (0 Bft) 100,00 %
13.07.2023 23:38 17,1 C 15,6 C 12,8 C 83 % 1018,8 hPa 0,0 l/m 0 min 0 min 0 W/m 0,0 km/h (0 Bft) 95,74 %
13.07.2023 23:40 17,1 C 15,6 C 12,8 C 83 % 1018,7 hPa 0,0 l/m 0 min 0 min 0 W/m 0,0 km/h (0 Bft) 97,87 %
13.07.2023 23:42 17,1 C 15,6 C 12,8 C 83 % 1018,7 hPa 0,0 l/m 0 min 0 min 0 W/m 0,0 km/h (0 Bft) 95,74 %
13.07.2023 23:44 17,1 C 15,6 C 12,8 C 84 % 1018,7 hPa 0,0 l/m 0 min 0 min 0 W/m 0,0 km/h (0 Bft) 59,57 %
13.07.2023 23:46 17,0 C 15,6 C 12,8 C 84 % 1018,8 hPa 0,0 l/m 0 min 0 min 0 W/m 0,0 km/h (0 Bft) 89,47 %
13.07.2023 23:48 17,0 C 15,6 C 12,2 C 84 % 1018,8 hPa 0,0 l/m 0 min 0 min 0 W/m 0,0 km/h (0 Bft) 97,87 %
13.07.2023 23:50 16,9 C 15,6 C 12,2 C 84 % 1018,8 hPa 0,0 l/m 0 min 0 min 0 W/m 0,0 km/h (0 Bft) 97,83 %
13.07.2023 23:52 16,9 C 15,6 C 12,2 C 84 % 1018,8 hPa 0,0 l/m 0 min 0 min 0 W/m 0,0 km/h (0 Bft) 93,62 %
13.07.2023 23:54 16,9 C 15,6 C 12,2 C 84 % 1018,8 hPa 0,0 l/m 0 min 0 min 0 W/m 0,0 km/h (0 Bft) 95,74 %
13.07.2023 23:56 16,9 C 15,6 C 12,2 C 84 % 1018,8 hPa 0,0 l/m 0 min 0 min 0 W/m 0,0 km/h (0 Bft) 95,74 %
13.07.2023 23:58 16,8 C 15,6 C 12,2 C 84 % 1018,8 hPa 0,0 l/m 0 min 0 min 0 W/m 0,0 km/h (0 Bft) 96,08 %
_ Min-Zeit 06:02 04:28 04:30 16:16 00:00 - - - - 00:50 23:44
Minimum _ 15,3 C 14,4 C 11,7 C 56 % 1014,8 hPa - - - - 0,0 km/h (0 Bft) 59,57 %
_ Max-Zeit 16:16 14:58 12:36 06:50 22:54 00:00 12:07 15:12 12:24 13:32 00:16
Maximum _ 25,0 C 29,4 C 24,4 C 84 % 1018,8 hPa 0,0 l/m 3 min 2 min 1110 W/m 41,8 km/h
SO (6 Bft)
100,00 %
Durchschnitt _ 19,3 C 19,3 C 15,6 C 72 % 1017,1 hPa #0,0 l/m #5:40 h #6 min. 296 W/m 10,7 km/h (2 Bft) 97,25 %
© 2023 W. Hausmann